Observation data for Stinnett on 09/10/2017      Previous  Date       Current Mesonet Observations  Soil Data  Daily Summary Page  Observations in Plain Language
KST3 100500Z 16011KT 20/09 A3023 RMK A01 T01950094  RH  052%=      5-min Rain = 0
KST3 100501Z 16013KT 20/09 A3023 RMK A01 T01950093  RH  052%=      5-min Rain = 0
KST3 100502Z 16013KT 20/09 A3023 RMK A01 T01950093  RH  052%=      5-min Rain = 0
KST3 100503Z 16013KT 20/09 A3023 RMK A01 T01950093  RH  052%=      5-min Rain = 0
KST3 100504Z 16012KT 20/09 A3023 RMK A01 T01950093  RH  052%=      5-min Rain = 0
KST3 100505Z 16011KT 20/09 A3023 RMK A01 T01950093  RH  052%=      5-min Rain = 0
KST3 100506Z 16010KT 20/09 A3023 RMK A01 T01950093  RH  052%=      5-min Rain = 0
KST3 100507Z 16014KT 19/09 A3023 RMK A01 T01940093  RH  052%=      5-min Rain = 0
KST3 100508Z 17013KT 20/09 A3023 RMK A01 T01950093  RH  052%=      5-min Rain = 0
KST3 100509Z 16012KT 20/09 A3023 RMK A01 T01950093  RH  052%=      5-min Rain = 0
KST3 100510Z 16010KT 20/09 A3023 RMK A01 T01950093  RH  052%=      5-min Rain = 0
KST3 100511Z 16010KT 19/09 A3023 RMK A01 T01940093  RH  052%=      5-min Rain = 0
KST3 100512Z 16010KT 19/09 A3023 RMK A01 T01940093  RH  052%=      5-min Rain = 0
KST3 100513Z 16014KT 19/09 A3023 RMK A01 T01930093  RH  052%=      5-min Rain = 0
KST3 100514Z 16014KT 19/09 A3023 RMK A01 T01940093  RH  052%=      5-min Rain = 0
KST3 100515Z 16012KT 19/09 A3023 RMK A01 T01940093  RH  052%=      5-min Rain = 0
KST3 100516Z 16012KT 19/09 A3023 RMK A01 T01940093  RH  052%=      5-min Rain = 0
KST3 100517Z 16012KT 19/09 A3023 RMK A01 T01940093  RH  052%=      5-min Rain = 0
KST3 100518Z 16013KT 19/09 A3023 RMK A01 T01940093  RH  052%=      5-min Rain = 0
KST3 100519Z 16011KT 19/09 A3023 RMK A01 T01940093  RH  052%=      5-min Rain = 0
KST3 100520Z 16010KT 19/09 A3023 RMK A01 T01940092  RH  052%=      5-min Rain = 0
KST3 100521Z 16010KT 19/09 A3023 RMK A01 T01940093  RH  052%=      5-min Rain = 0
KST3 100522Z 16011KT 19/09 A3023 RMK A01 T01930093  RH  052%=      5-min Rain = 0
KST3 100523Z 17011KT 19/09 A3023 RMK A01 T01930093  RH  052%=      5-min Rain = 0
KST3 100524Z 16011KT 19/09 A3023 RMK A01 T01930093  RH  052%=      5-min Rain = 0
KST3 100525Z 16010KT 19/09 A3023 RMK A01 T01930093  RH  052%=      5-min Rain = 0
KST3 100526Z 16011KT 19/09 A3023 RMK A01 T01930093  RH  052%=      5-min Rain = 0
KST3 100527Z 16013KT 19/09 A3023 RMK A01 T01920093  RH  052%=      5-min Rain = 0
KST3 100528Z 16011KT 19/09 A3023 RMK A01 T01920093  RH  052%=      5-min Rain = 0
KST3 100529Z 16010KT 19/09 A3023 RMK A01 T01930093  RH  052%=      5-min Rain = 0
KST3 100530Z 16011KT 19/09 A3023 RMK A01 T01920093  RH  052%=      5-min Rain = 0
KST3 100531Z 17012KT 19/09 A3023 RMK A01 T01920093  RH  053%=      5-min Rain = 0
KST3 100532Z 16009KT 19/09 A3023 RMK A01 T01920093  RH  052%=      5-min Rain = 0
KST3 100533Z 16010KT 19/09 A3023 RMK A01 T01920093  RH  053%=      5-min Rain = 0
KST3 100534Z 16011KT 19/09 A3023 RMK A01 T01910093  RH  053%=      5-min Rain = 0
KST3 100535Z 16011KT 19/09 A3023 RMK A01 T01910093  RH  053%=      5-min Rain = 0
KST3 100536Z 17010KT 19/09 A3023 RMK A01 T01910093  RH  053%=      5-min Rain = 0
KST3 100537Z 16010KT 19/09 A3023 RMK A01 T01910093  RH  053%=      5-min Rain = 0
KST3 100538Z 17010KT 19/09 A3023 RMK A01 T01910093  RH  053%=      5-min Rain = 0
KST3 100539Z 16011KT 19/09 A3023 RMK A01 T01900093  RH  053%=      5-min Rain = 0
KST3 100540Z 16012KT 19/09 A3023 RMK A01 T01900093  RH  053%=      5-min Rain = 0
KST3 100541Z 17011KT 19/09 A3023 RMK A01 T01900093  RH  053%=      5-min Rain = 0
KST3 100542Z 16010KT 19/09 A3023 RMK A01 T01910093  RH  053%=      5-min Rain = 0
KST3 100543Z 16010KT 19/09 A3023 RMK A01 T01900093  RH  053%=      5-min Rain = 0
KST3 100544Z 16010KT 19/09 A3023 RMK A01 T01900093  RH  053%=      5-min Rain = 0
KST3 100545Z 17013KT 19/09 A3023 RMK A01 T01890092  RH  053%=      5-min Rain = 0
KST3 100546Z 17011KT 19/09 A3023 RMK A01 T01900093  RH  053%=      5-min Rain = 0
KST3 100547Z 17010KT 19/09 A3023 RMK A01 T01900093  RH  053%=      5-min Rain = 0
KST3 100548Z 17009KT 19/09 A3023 RMK A01 T01900093  RH  053%=      5-min Rain = 0
KST3 100549Z 17011KT 19/09 A3023 RMK A01 T01900093  RH  053%=      5-min Rain = 0
KST3 100550Z 16011KT 19/09 A3023 RMK A01 T01900093  RH  053%=      5-min Rain = 0
KST3 100551Z 17009KT 19/09 A3023 RMK A01 T01890093  RH  053%=      5-min Rain = 0
KST3 100552Z 17011KT 19/09 A3023 RMK A01 T01890093  RH  053%=      5-min Rain = 0
KST3 100553Z 16011KT 19/09 A3023 RMK A01 T01890093  RH  054%=      5-min Rain = 0
KST3 100554Z 16013KT 19/09 A3023 RMK A01 T01890093  RH  054%=      5-min Rain = 0
KST3 100555Z 17013KT 19/09 A3023 RMK A01 T01900093  RH  053%=      5-min Rain = 0
KST3 100556Z 17012KT 19/09 A3023 RMK A01 T01910093  RH  053%=      5-min Rain = 0
KST3 100557Z 17012KT 19/09 A3023 RMK A01 T01910093  RH  053%=      5-min Rain = 0
KST3 100558Z 17013KT 19/09 A3023 RMK A01 T01900093  RH  053%=      5-min Rain = 0
KST3 100559Z 17011KT 19/09 A3023 RMK A01 T01900093  RH  053%=      5-min Rain = 0
KST3 100600Z 17011KT 19/09 A3023 RMK A01 T01900093  RH  053%=      5-min Rain = 0
KST3 100601Z 17011KT 19/09 A3023 RMK A01 T01890093  RH  054%=      5-min Rain = 0
KST3 100602Z 17012KT 19/09 A3023 RMK A01 T01890093  RH  054%=      5-min Rain = 0
KST3 100603Z 17012KT 19/09 A3023 RMK A01 T01890093  RH  054%=      5-min Rain = 0
KST3 100604Z 17012KT 19/09 A3022 RMK A01 T01890093  RH  054%=      5-min Rain = 0
KST3 100605Z 17011KT 19/09 A3023 RMK A01 T01890093  RH  054%=      5-min Rain = 0
KST3 100606Z 17011KT 19/09 A3023 RMK A01 T01890094  RH  054%=      5-min Rain = 0
KST3 100607Z 16011KT 19/09 A3023 RMK A01 T01880094  RH  054%=      5-min Rain = 0
KST3 100608Z 17012KT 19/09 A3023 RMK A01 T01880094  RH  054%=      5-min Rain = 0
KST3 100609Z 16012KT 19/09 A3023 RMK A01 T01880094  RH  054%=      5-min Rain = 0
KST3 100610Z 17011KT 19/09 A3023 RMK A01 T01880094  RH  054%=      5-min Rain = 0
KST3 100611Z 17011KT 19/09 A3023 RMK A01 T01880094  RH  054%=      5-min Rain = 0
KST3 100612Z 17013KT 19/09 A3023 RMK A01 T01880094  RH  054%=      5-min Rain = 0
KST3 100613Z 17015KT 19/09 A3022 RMK A01 T01890094  RH  054%=      5-min Rain = 0
KST3 100614Z 17014KT 19/09 A3022 RMK A01 T01900094  RH  054%=      5-min Rain = 0
KST3 100615Z 17012KT 19/10 A3022 RMK A01 T01900095  RH  054%=      5-min Rain = 0
KST3 100616Z 17012KT 19/09 A3022 RMK A01 T01900094  RH  054%=      5-min Rain = 0
KST3 100617Z 17012KT 19/09 A3022 RMK A01 T01900094  RH  054%=      5-min Rain = 0
KST3 100618Z 17011KT 19/10 A3022 RMK A01 T01900095  RH  054%=      5-min Rain = 0
KST3 100619Z 16014KT 19/09 A3022 RMK A01 T01890094  RH  054%=      5-min Rain = 0
KST3 100620Z 17011KT 19/09 A3022 RMK A01 T01890094  RH  054%=      5-min Rain = 0
KST3 100621Z 17012KT 19/09 A3022 RMK A01 T01890094  RH  054%=      5-min Rain = 0
KST3 100622Z 17011KT 19/09 A3023 RMK A01 T01900094  RH  054%=      5-min Rain = 0
KST3 100623Z 17012KT 19/09 A3023 RMK A01 T01890094  RH  054%=      5-min Rain = 0
KST3 100624Z 17012KT 19/10 A3023 RMK A01 T01890095  RH  054%=      5-min Rain = 0
KST3 100625Z 17014KT 19/09 A3023 RMK A01 T01890094  RH  054%=      5-min Rain = 0
KST3 100626Z 17013KT 19/09 A3023 RMK A01 T01880094  RH  054%=      5-min Rain = 0
KST3 100627Z 17014KT 19/09 A3023 RMK A01 T01890094  RH  054%=      5-min Rain = 0
KST3 100628Z 17012KT 19/09 A3023 RMK A01 T01890094  RH  054%=      5-min Rain = 0
KST3 100629Z 17011KT 19/09 A3023 RMK A01 T01890094  RH  054%=      5-min Rain = 0
KST3 100630Z 17012KT 19/09 A3023 RMK A01 T01880094  RH  054%=      5-min Rain = 0
KST3 100631Z 17012KT 19/09 A3023 RMK A01 T01880094  RH  054%=      5-min Rain = 0
KST3 100632Z 17011KT 19/09 A3023 RMK A01 T01880094  RH  054%=      5-min Rain = 0
KST3 100633Z 17012KT 19/09 A3023 RMK A01 T01880094  RH  054%=      5-min Rain = 0
KST3 100634Z 17012KT 19/09 A3023 RMK A01 T01880094  RH  054%=      5-min Rain = 0
KST3 100635Z 16012KT 19/09 A3023 RMK A01 T01880094  RH  054%=      5-min Rain = 0
KST3 100636Z 17011KT 19/09 A3023 RMK A01 T01880094  RH  054%=      5-min Rain = 0
KST3 100637Z 17012KT 19/09 A3023 RMK A01 T01870093  RH  054%=      5-min Rain = 0
KST3 100638Z 17012KT 19/09 A3023 RMK A01 T01870094  RH  054%=      5-min Rain = 0
KST3 100639Z 17013G19KT 19/09 A3023 RMK A01 T01870094  RH  054%=      5-min Rain = 0
KST3 100640Z 17013KT 19/09 A3023 RMK A01 T01870093  RH  054%=      5-min Rain = 0
KST3 100641Z 17011KT 19/09 A3023 RMK A01 T01880094  RH  054%=      5-min Rain = 0
KST3 100642Z 17013KT 19/09 A3023 RMK A01 T01870094  RH  054%=      5-min Rain = 0
KST3 100643Z 17013KT 19/09 A3023 RMK A01 T01870094  RH  054%=      5-min Rain = 0
KST3 100644Z 17010KT 19/09 A3023 RMK A01 T01880094  RH  054%=      5-min Rain = 0
KST3 100645Z 16012KT 19/09 A3023 RMK A01 T01870094  RH  054%=      5-min Rain = 0
KST3 100646Z 17013KT 19/09 A3023 RMK A01 T01860093  RH  055%=      5-min Rain = 0
KST3 100647Z 17012KT 19/09 A3023 RMK A01 T01860093  RH  055%=      5-min Rain = 0
KST3 100648Z 17011KT 19/09 A3023 RMK A01 T01860093  RH  055%=      5-min Rain = 0
KST3 100649Z 17011KT 19/09 A3023 RMK A01 T01860094  RH  055%=      5-min Rain = 0
KST3 100650Z 17010KT 19/09 A3023 RMK A01 T01850093  RH  055%=      5-min Rain = 0
KST3 100651Z 17012KT 19/09 A3023 RMK A01 T01850093  RH  055%=      5-min Rain = 0
KST3 100652Z 17011KT 19/09 A3023 RMK A01 T01850093  RH  055%=      5-min Rain = 0
KST3 100653Z 17010KT 19/09 A3023 RMK A01 T01850094  RH  055%=      5-min Rain = 0
KST3 100654Z 17012KT 19/09 A3023 RMK A01 T01850094  RH  055%=      5-min Rain = 0
KST3 100655Z 16013KT 19/09 A3023 RMK A01 T01850094  RH  055%=      5-min Rain = 0
KST3 100656Z 16011KT 19/09 A3023 RMK A01 T01850094  RH  055%=      5-min Rain = 0
KST3 100657Z 17010KT 19/09 A3023 RMK A01 T01850094  RH  055%=      5-min Rain = 0
KST3 100658Z 17011KT 18/09 A3023 RMK A01 T01840094  RH  056%=      5-min Rain = 0
KST3 100659Z 17012KT 18/09 A3023 RMK A01 T01840094  RH  056%=      5-min Rain = 0
KST3 100700Z 17012KT 18/09 A3023 RMK A01 T01830094  RH  056%=      5-min Rain = 0
KST3 100701Z 17012KT 18/09 A3023 RMK A01 T01840094  RH  056%=      5-min Rain = 0
KST3 100702Z 17013KT 18/09 A3023 RMK A01 T01840094  RH  056%=      5-min Rain = 0
KST3 100703Z 17011KT 18/09 A3023 RMK A01 T01840094  RH  056%=      5-min Rain = 0
KST3 100704Z 17010KT 18/09 A3023 RMK A01 T01840094  RH  056%=      5-min Rain = 0
KST3 100705Z 17010KT 18/09 A3023 RMK A01 T01830094  RH  056%=      5-min Rain = 0
KST3 100706Z 17012KT 18/09 A3023 RMK A01 T01830094  RH  056%=      5-min Rain = 0
KST3 100707Z 17011KT 18/09 A3023 RMK A01 T01830094  RH  056%=      5-min Rain = 0
KST3 100708Z 17010KT 18/09 A3023 RMK A01 T01830094  RH  056%=      5-min Rain = 0
KST3 100709Z 17011KT 18/09 A3023 RMK A01 T01820094  RH  056%=      5-min Rain = 0
KST3 100710Z 17010KT 18/09 A3023 RMK A01 T01820094  RH  057%=      5-min Rain = 0
KST3 100711Z 17011KT 18/10 A3023 RMK A01 T01820095  RH  057%=      5-min Rain = 0
KST3 100712Z 17011KT 18/09 A3023 RMK A01 T01810094  RH  057%=      5-min Rain = 0
KST3 100713Z 17011KT 18/10 A3023 RMK A01 T01810095  RH  057%=      5-min Rain = 0
KST3 100714Z 17012KT 18/09 A3023 RMK A01 T01810094  RH  057%=      5-min Rain = 0
KST3 100715Z 17012KT 18/10 A3023 RMK A01 T01810095  RH  057%=      5-min Rain = 0
KST3 100716Z 17010KT 18/09 A3023 RMK A01 T01810094  RH  057%=      5-min Rain = 0
KST3 100717Z 17011KT 18/09 A3023 RMK A01 T01810094  RH  057%=      5-min Rain = 0
KST3 100718Z 17011KT 18/09 A3023 RMK A01 T01810094  RH  057%=      5-min Rain = 0
KST3 100719Z 17010KT 18/10 A3023 RMK A01 T01800095  RH  057%=      5-min Rain = 0
KST3 100720Z 17011KT 18/10 A3023 RMK A01 T01800095  RH  057%=      5-min Rain = 0
KST3 100721Z 17010KT 18/10 A3023 RMK A01 T01790095  RH  058%=      5-min Rain = 0
KST3 100722Z 17011KT 18/10 A3023 RMK A01 T01790095  RH  058%=      5-min Rain = 0
KST3 100723Z 18010KT 18/10 A3023 RMK A01 T01790095  RH  058%=      5-min Rain = 0
KST3 100724Z 17011KT 18/10 A3023 RMK A01 T01790095  RH  058%=      5-min Rain = 0
KST3 100725Z 17010KT 18/10 A3023 RMK A01 T01790095  RH  058%=      5-min Rain = 0
KST3 100726Z 17011KT 18/10 A3023 RMK A01 T01790095  RH  058%=      5-min Rain = 0
KST3 100727Z 17009KT 18/10 A3023 RMK A01 T01780095  RH  058%=      5-min Rain = 0
KST3 100728Z 17009KT 18/10 A3023 RMK A01 T01780095  RH  058%=      5-min Rain = 0
KST3 100729Z 17010KT 18/10 A3023 RMK A01 T01770095  RH  058%=      5-min Rain = 0
KST3 100730Z 17010KT 18/10 A3023 RMK A01 T01770095  RH  058%=      5-min Rain = 0
KST3 100731Z 17010KT 18/10 A3023 RMK A01 T01780095  RH  058%=      5-min Rain = 0
KST3 100732Z 17010KT 18/10 A3023 RMK A01 T01780095  RH  058%=      5-min Rain = 0
KST3 100733Z 17009KT 18/10 A3023 RMK A01 T01770095  RH  058%=      5-min Rain = 0
KST3 100734Z 17009KT 18/10 A3023 RMK A01 T01770095  RH  059%=      5-min Rain = 0
KST3 100735Z 17009KT 18/10 A3023 RMK A01 T01760095  RH  059%=      5-min Rain = 0
KST3 100736Z 17011KT 18/10 A3023 RMK A01 T01760095  RH  059%=      5-min Rain = 0
KST3 100737Z 17009KT 18/10 A3023 RMK A01 T01760095  RH  059%=      5-min Rain = 0
KST3 100738Z 17009KT 18/10 A3023 RMK A01 T01760095  RH  059%=      5-min Rain = 0
KST3 100739Z 18009KT 18/10 A3023 RMK A01 T01760095  RH  059%=      5-min Rain = 0
KST3 100740Z 17009KT 18/10 A3023 RMK A01 T01750095  RH  059%=      5-min Rain = 0
KST3 100741Z 17010KT 18/10 A3023 RMK A01 T01750095  RH  059%=      5-min Rain = 0
KST3 100742Z 17011KT 17/10 A3023 RMK A01 T01740095  RH  060%=      5-min Rain = 0
KST3 100743Z 17011KT 17/10 A3023 RMK A01 T01740095  RH  060%=      5-min Rain = 0
KST3 100744Z 17011KT 18/10 A3023 RMK A01 T01750096  RH  059%=      5-min Rain = 0
KST3 100745Z 17010KT 18/10 A3023 RMK A01 T01760096  RH  059%=      5-min Rain = 0
KST3 100746Z 17010KT 18/10 A3023 RMK A01 T01750095  RH  059%=      5-min Rain = 0
KST3 100747Z 17008KT 18/10 A3023 RMK A01 T01750096  RH  060%=      5-min Rain = 0
KST3 100748Z 17009KT 17/10 A3023 RMK A01 T01740095  RH  060%=      5-min Rain = 0
KST3 100749Z 17009KT 17/10 A3023 RMK A01 T01740096  RH  060%=      5-min Rain = 0
KST3 100750Z 17010KT 17/10 A3023 RMK A01 T01740096  RH  060%=      5-min Rain = 0
KST3 100751Z 17010KT 17/10 A3023 RMK A01 T01740096  RH  060%=      5-min Rain = 0
KST3 100752Z 17009KT 18/10 A3023 RMK A01 T01750096  RH  060%=      5-min Rain = 0
KST3 100753Z 18009KT 17/10 A3023 RMK A01 T01740096  RH  060%=      5-min Rain = 0
KST3 100754Z 17010KT 17/10 A3023 RMK A01 T01740096  RH  060%=      5-min Rain = 0
KST3 100755Z 18010KT 17/10 A3023 RMK A01 T01740096  RH  060%=      5-min Rain = 0
KST3 100756Z 18010KT 17/10 A3023 RMK A01 T01740096  RH  060%=      5-min Rain = 0
KST3 100757Z 18009KT 17/10 A3023 RMK A01 T01740096  RH  060%=      5-min Rain = 0
KST3 100758Z 18009KT 17/10 A3023 RMK A01 T01730096  RH  060%=      5-min Rain = 0
KST3 100759Z 18009KT 17/10 A3023 RMK A01 T01730096  RH  060%=      5-min Rain = 0
KST3 100800Z 18010KT 17/10 A3023 RMK A01 T01730096  RH  061%=      5-min Rain = 0
KST3 100801Z 18008KT 17/10 A3023 RMK A01 T01730096  RH  061%=      5-min Rain = 0
KST3 100802Z 18011KT 17/10 A3023 RMK A01 T01730096  RH  061%=      5-min Rain = 0
KST3 100803Z 18012KT 17/10 A3023 RMK A01 T01730097  RH  061%=      5-min Rain = 0
KST3 100804Z 18010KT 17/10 A3023 RMK A01 T01740096  RH  060%=      5-min Rain = 0
KST3 100805Z 18010KT 17/10 A3023 RMK A01 T01740096  RH  060%=      5-min Rain = 0
KST3 100806Z 19011KT 17/10 A3023 RMK A01 T01730096  RH  060%=      5-min Rain = 0
KST3 100807Z 19012G17KT 17/10 A3023 RMK A01 T01730096  RH  061%=      5-min Rain = 0
KST3 100808Z 19010KT 17/10 A3023 RMK A01 T01730096  RH  061%=      5-min Rain = 0
KST3 100809Z 19010KT 17/10 A3023 RMK A01 T01730096  RH  061%=      5-min Rain = 0
KST3 100810Z 19010KT 17/10 A3023 RMK A01 T01730096  RH  061%=      5-min Rain = 0
KST3 100811Z 18010KT 17/10 A3023 RMK A01 T01730096  RH  061%=      5-min Rain = 0
KST3 100812Z 19010KT 17/10 A3023 RMK A01 T01730096  RH  061%=      5-min Rain = 0
KST3 100813Z 19007KT 17/10 A3023 RMK A01 T01720096  RH  061%=      5-min Rain = 0
KST3 100814Z 19009KT 17/10 A3023 RMK A01 T01710095  RH  061%=      5-min Rain = 0
KST3 100815Z 18009KT 17/10 A3023 RMK A01 T01700096  RH  062%=      5-min Rain = 0
KST3 100816Z 18011KT 17/10 A3023 RMK A01 T01700096  RH  062%=      5-min Rain = 0
KST3 100817Z 18010KT 17/10 A3023 RMK A01 T01700096  RH  062%=      5-min Rain = 0
KST3 100818Z 18010KT 17/10 A3023 RMK A01 T01700096  RH  062%=      5-min Rain = 0
KST3 100819Z 18012KT 17/10 A3023 RMK A01 T01700096  RH  062%=      5-min Rain = 0
KST3 100820Z 18012KT 17/10 A3023 RMK A01 T01710097  RH  062%=      5-min Rain = 0
KST3 100821Z 18010KT 17/10 A3023 RMK A01 T01710096  RH  061%=      5-min Rain = 0
KST3 100822Z 18011KT 17/10 A3023 RMK A01 T01710096  RH  061%=      5-min Rain = 0
KST3 100823Z 18012KT 17/10 A3023 RMK A01 T01710097  RH  061%=      5-min Rain = 0
KST3 100824Z 18012KT 17/10 A3023 RMK A01 T01710097  RH  062%=      5-min Rain = 0
KST3 100825Z 18008KT 17/10 A3023 RMK A01 T01710097  RH  062%=      5-min Rain = 0
KST3 100826Z 18010KT 17/10 A3023 RMK A01 T01700096  RH  062%=      5-min Rain = 0
KST3 100827Z 18014KT 17/10 A3023 RMK A01 T01690097  RH  062%=      5-min Rain = 0
KST3 100828Z 18014KT 17/10 A3023 RMK A01 T01700097  RH  062%=      5-min Rain = 0
KST3 100829Z 18012KT 17/10 A3023 RMK A01 T01720097  RH  062%=      5-min Rain = 0
KST3 100830Z 19008KT 17/10 A3023 RMK A01 T01720097  RH  061%=      5-min Rain = 0
KST3 100831Z 19009KT 17/10 A3023 RMK A01 T01710096  RH  062%=      5-min Rain = 0
KST3 100832Z 19008KT 17/10 A3023 RMK A01 T01690096  RH  062%=      5-min Rain = 0
KST3 100833Z 19008KT 17/10 A3023 RMK A01 T01680097  RH  063%=      5-min Rain = 0
KST3 100834Z 18010KT 17/10 A3023 RMK A01 T01670096  RH  063%=      5-min Rain = 0
KST3 100835Z 19008KT 17/10 A3023 RMK A01 T01670097  RH  063%=      5-min Rain = 0
KST3 100836Z 19008KT 17/10 A3023 RMK A01 T01660096  RH  063%=      5-min Rain = 0
KST3 100837Z 19008KT 17/10 A3023 RMK A01 T01650096  RH  064%=      5-min Rain = 0
KST3 100838Z 19007KT 17/10 A3023 RMK A01 T01650097  RH  064%=      5-min Rain = 0
KST3 100839Z 19008KT 16/10 A3023 RMK A01 T01640096  RH  064%=      5-min Rain = 0
KST3 100840Z 19009KT 16/10 A3023 RMK A01 T01630097  RH  065%=      5-min Rain = 0
KST3 100841Z 19009KT 16/10 A3023 RMK A01 T01640097  RH  065%=      5-min Rain = 0
KST3 100842Z 19009KT 16/10 A3023 RMK A01 T01630097  RH  065%=      5-min Rain = 0
KST3 100843Z 19009KT 16/10 A3023 RMK A01 T01630097  RH  065%=      5-min Rain = 0
KST3 100844Z 19009KT 16/10 A3023 RMK A01 T01630097  RH  065%=      5-min Rain = 0
KST3 100845Z 19010KT 16/10 A3023 RMK A01 T01630097  RH  065%=      5-min Rain = 0
KST3 100846Z 18010KT 16/10 A3023 RMK A01 T01640097  RH  065%=      5-min Rain = 0
KST3 100847Z 18010KT 16/10 A3023 RMK A01 T01640097  RH  065%=      5-min Rain = 0
KST3 100848Z 18010KT 17/10 A3023 RMK A01 T01650098  RH  065%=      5-min Rain = 0
KST3 100849Z 18010KT 16/10 A3023 RMK A01 T01640097  RH  065%=      5-min Rain = 0
KST3 100850Z 18010KT 16/10 A3023 RMK A01 T01640097  RH  065%=      5-min Rain = 0
KST3 100851Z 18011KT 17/10 A3023 RMK A01 T01650098  RH  064%=      5-min Rain = 0
KST3 100852Z 18011KT 17/10 A3023 RMK A01 T01650098  RH  064%=      5-min Rain = 0
KST3 100853Z 18011KT 17/10 A3023 RMK A01 T01660098  RH  064%=      5-min Rain = 0
KST3 100854Z 18011KT 17/10 A3023 RMK A01 T01660098  RH  064%=      5-min Rain = 0
KST3 100855Z 18010KT 17/10 A3023 RMK A01 T01660098  RH  064%=      5-min Rain = 0
KST3 100856Z 18011KT 17/10 A3023 RMK A01 T01660098  RH  064%=      5-min Rain = 0
KST3 100857Z 18011KT 17/10 A3022 RMK A01 T01660098  RH  064%=      5-min Rain = 0
KST3 100858Z 18011KT 17/10 A3022 RMK A01 T01660098  RH  064%=      5-min Rain = 0
KST3 100859Z 18010KT 17/10 A3022 RMK A01 T01660098  RH  064%=      5-min Rain = 0
KST3 100900Z 18012KT 17/10 A3022 RMK A01 T01660098  RH  064%=      5-min Rain = 0
KST3 100901Z 18013KT 17/10 A3022 RMK A01 T01660098  RH  064%=      5-min Rain = 0
KST3 100902Z 18013KT 17/10 A3022 RMK A01 T01660098  RH  064%=      5-min Rain = 0
KST3 100903Z 18011KT 17/10 A3022 RMK A01 T01670098  RH  064%=      5-min Rain = 0
KST3 100904Z 18012KT 17/10 A3022 RMK A01 T01670099  RH  064%=      5-min Rain = 0
KST3 100905Z 18012KT 17/10 A3023 RMK A01 T01670099  RH  064%=      5-min Rain = 0
KST3 100906Z 18010KT 17/10 A3023 RMK A01 T01670099  RH  064%=      5-min Rain = 0
KST3 100907Z 18011KT 17/10 A3023 RMK A01 T01670099  RH  064%=      5-min Rain = 0
KST3 100908Z 17011KT 17/10 A3023 RMK A01 T01670099  RH  064%=      5-min Rain = 0
KST3 100909Z 18012KT 17/10 A3023 RMK A01 T01670099  RH  064%=      5-min Rain = 0
KST3 100910Z 17012KT 17/10 A3023 RMK A01 T01670098  RH  064%=      5-min Rain = 0
KST3 100911Z 18011KT 17/10 A3023 RMK A01 T01680099  RH  064%=      5-min Rain = 0
KST3 100912Z 17011KT 17/10 A3023 RMK A01 T01680099  RH  064%=      5-min Rain = 0
KST3 100913Z 17014KT 17/10 A3023 RMK A01 T01680099  RH  064%=      5-min Rain = 0
KST3 100914Z 17012KT 17/10 A3023 RMK A01 T01670099  RH  064%=      5-min Rain = 0
KST3 100915Z 17013KT 17/10 A3023 RMK A01 T01670098  RH  064%=      5-min Rain = 0
KST3 100916Z 18012G17KT 17/10 A3023 RMK A01 T01680099  RH  064%=      5-min Rain = 0
KST3 100917Z 18012KT 17/10 A3023 RMK A01 T01680099  RH  064%=      5-min Rain = 0
KST3 100918Z 18012KT 17/10 A3023 RMK A01 T01680099  RH  064%=      5-min Rain = 0
KST3 100919Z 18013KT 17/10 A3023 RMK A01 T01690099  RH  064%=      5-min Rain = 0
KST3 100920Z 18012KT 17/10 A3023 RMK A01 T01690099  RH  064%=      5-min Rain = 0
KST3 100921Z 17013KT 17/10 A3023 RMK A01 T01680099  RH  064%=      5-min Rain = 0
KST3 100922Z 17012KT 17/10 A3023 RMK A01 T01680099  RH  064%=      5-min Rain = 0
KST3 100923Z 18012KT 17/10 A3023 RMK A01 T01680100  RH  064%=      5-min Rain = 0
KST3 100924Z 18013KT 17/10 A3023 RMK A01 T01680100  RH  064%=      5-min Rain = 0
KST3 100925Z 18013KT 17/10 A3023 RMK A01 T01680100  RH  064%=      5-min Rain = 0
KST3 100926Z 18012KT 17/10 A3023 RMK A01 T01680099  RH  064%=      5-min Rain = 0
KST3 100927Z 18013KT 17/10 A3023 RMK A01 T01680099  RH  064%=      5-min Rain = 0
KST3 100928Z 18011KT 17/10 A3023 RMK A01 T01680099  RH  064%=      5-min Rain = 0
KST3 100929Z 18012KT 17/10 A3023 RMK A01 T01680099  RH  064%=      5-min Rain = 0
KST3 100930Z 18011KT 17/10 A3023 RMK A01 T01680100  RH  064%=      5-min Rain = 0
KST3 100931Z 18013KT 17/10 A3023 RMK A01 T01670099  RH  064%=      5-min Rain = 0
KST3 100932Z 18011KT 17/10 A3023 RMK A01 T01670099  RH  064%=      5-min Rain = 0
KST3 100933Z 18012KT 17/10 A3023 RMK A01 T01670100  RH  064%=      5-min Rain = 0
KST3 100934Z 18012KT 17/10 A3023 RMK A01 T01670099  RH  064%=      5-min Rain = 0
KST3 100935Z 18013KT 17/10 A3023 RMK A01 T01670099  RH  064%=      5-min Rain = 0
KST3 100936Z 18013KT 17/10 A3023 RMK A01 T01680100  RH  064%=      5-min Rain = 0
KST3 100937Z 18012KT 17/10 A3023 RMK A01 T01670099  RH  064%=      5-min Rain = 0
KST3 100938Z 18012KT 17/10 A3023 RMK A01 T01680100  RH  064%=      5-min Rain = 0
KST3 100939Z 19012KT 17/10 A3023 RMK A01 T01670099  RH  064%=      5-min Rain = 0
KST3 100940Z 18012KT 17/10 A3023 RMK A01 T01670099  RH  064%=      5-min Rain = 0
KST3 100941Z 18012KT 17/10 A3023 RMK A01 T01670100  RH  064%=      5-min Rain = 0
KST3 100942Z 18011KT 17/10 A3023 RMK A01 T01670100  RH  064%=      5-min Rain = 0
KST3 100943Z 18011KT 17/10 A3023 RMK A01 T01670100  RH  064%=      5-min Rain = 0
KST3 100944Z 18011KT 17/10 A3023 RMK A01 T01670099  RH  064%=      5-min Rain = 0
KST3 100945Z 18010KT 17/10 A3023 RMK A01 T01670100  RH  065%=      5-min Rain = 0
KST3 100946Z 19010KT 17/10 A3023 RMK A01 T01660099  RH  065%=      5-min Rain = 0
KST3 100947Z 19010KT 17/10 A3023 RMK A01 T01650099  RH  065%=      5-min Rain = 0
KST3 100948Z 19010KT 16/10 A3023 RMK A01 T01640099  RH  065%=      5-min Rain = 0
KST3 100949Z 19010KT 17/10 A3023 RMK A01 T01650100  RH  065%=      5-min Rain = 0
KST3 100950Z 19011KT 16/10 A3023 RMK A01 T01640099  RH  066%=      5-min Rain = 0
KST3 100951Z 19011KT 16/10 A3023 RMK A01 T01630099  RH  066%=      5-min Rain = 0
KST3 100952Z 19011KT 16/10 A3023 RMK A01 T01630099  RH  066%=      5-min Rain = 0
KST3 100953Z 19012KT 16/10 A3023 RMK A01 T01630099  RH  066%=      5-min Rain = 0
KST3 100954Z 19011KT 16/10 A3023 RMK A01 T01630099  RH  066%=      5-min Rain = 0
KST3 100955Z 19009KT 16/10 A3023 RMK A01 T01620099  RH  066%=      5-min Rain = 0
KST3 100956Z 19008KT 16/10 A3023 RMK A01 T01610099  RH  066%=      5-min Rain = 0
KST3 100957Z 19009KT 16/10 A3023 RMK A01 T01600099  RH  067%=      5-min Rain = 0
KST3 100958Z 19009KT 16/10 A3023 RMK A01 T01590099  RH  067%=      5-min Rain = 0
KST3 100959Z 19008KT 16/10 A3023 RMK A01 T01590099  RH  067%=      5-min Rain = 0
KST3 101000Z 19007KT 16/10 A3023 RMK A01 T01590099  RH  067%=      5-min Rain = 0
KST3 101001Z 19008KT 16/10 A3023 RMK A01 T01570098  RH  068%=      5-min Rain = 0
KST3 101002Z 19007KT 16/10 A3023 RMK A01 T01560098  RH  068%=      5-min Rain = 0
KST3 101003Z 19008KT 16/10 A3023 RMK A01 T01550098  RH  069%=      5-min Rain = 0
KST3 101004Z 19009KT 16/10 A3023 RMK A01 T01550098  RH  069%=      5-min Rain = 0
KST3 101005Z 19009KT 16/10 A3023 RMK A01 T01550098  RH  069%=      5-min Rain = 0
KST3 101006Z 19009KT 16/10 A3023 RMK A01 T01550099  RH  069%=      5-min Rain = 0
KST3 101007Z 19009KT 15/10 A3023 RMK A01 T01540098  RH  069%=      5-min Rain = 0
KST3 101008Z 19010KT 16/10 A3023 RMK A01 T01550098  RH  069%=      5-min Rain = 0
KST3 101009Z 19009KT 16/10 A3023 RMK A01 T01550098  RH  069%=      5-min Rain = 0
KST3 101010Z 19010KT 16/10 A3023 RMK A01 T01550099  RH  069%=      5-min Rain = 0
KST3 101011Z 19010KT 16/10 A3023 RMK A01 T01550099  RH  069%=      5-min Rain = 0
KST3 101012Z 19009KT 16/10 A3023 RMK A01 T01560099  RH  069%=      5-min Rain = 0
KST3 101013Z 19009KT 16/10 A3023 RMK A01 T01560099  RH  069%=      5-min Rain = 0
KST3 101014Z 19009KT 16/10 A3023 RMK A01 T01560099  RH  069%=      5-min Rain = 0
KST3 101015Z 19010KT 16/10 A3023 RMK A01 T01570099  RH  068%=      5-min Rain = 0
KST3 101016Z 19009KT 16/10 A3023 RMK A01 T01570099  RH  068%=      5-min Rain = 0
KST3 101017Z 19011KT 16/10 A3023 RMK A01 T01580099  RH  068%=      5-min Rain = 0
KST3 101018Z 19009KT 16/10 A3023 RMK A01 T01580099  RH  068%=      5-min Rain = 0
KST3 101019Z 19010KT 16/10 A3023 RMK A01 T01580099  RH  068%=      5-min Rain = 0
KST3 101020Z 19010KT 16/10 A3024 RMK A01 T01580099  RH  068%=      5-min Rain = 0
KST3 101021Z 19010KT 16/10 A3024 RMK A01 T01580099  RH  068%=      5-min Rain = 0
KST3 101022Z 19009KT 16/10 A3024 RMK A01 T01580099  RH  068%=      5-min Rain = 0
KST3 101023Z 19009KT 16/10 A3024 RMK A01 T01580099  RH  068%=      5-min Rain = 0
KST3 101024Z 19010KT 16/10 A3024 RMK A01 T01580099  RH  068%=      5-min Rain = 0
KST3 101025Z 19009KT 16/10 A3024 RMK A01 T01580099  RH  068%=      5-min Rain = 0
KST3 101026Z 19009KT 16/10 A3024 RMK A01 T01590099  RH  068%=      5-min Rain = 0
KST3 101027Z 19009KT 16/10 A3024 RMK A01 T01590099  RH  068%=      5-min Rain = 0
KST3 101028Z 19009KT 16/10 A3024 RMK A01 T01590099  RH  068%=      5-min Rain = 0
KST3 101029Z 19011KT 16/10 A3024 RMK A01 T01590099  RH  068%=      5-min Rain = 0
KST3 101030Z 19010KT 16/10 A3024 RMK A01 T01590099  RH  067%=      5-min Rain = 0
KST3 101031Z 19010KT 16/10 A3024 RMK A01 T01590099  RH  067%=      5-min Rain = 0
KST3 101032Z 19009KT 16/10 A3024 RMK A01 T01590099  RH  067%=      5-min Rain = 0
KST3 101033Z 19010KT 16/10 A3024 RMK A01 T01590099  RH  067%=      5-min Rain = 0
KST3 101034Z 18010KT 16/10 A3024 RMK A01 T01600099  RH  067%=      5-min Rain = 0
KST3 101035Z 18010KT 16/10 A3024 RMK A01 T01600099  RH  067%=      5-min Rain = 0
KST3 101036Z 18011KT 16/10 A3024 RMK A01 T01610099  RH  067%=      5-min Rain = 0
KST3 101037Z 18011KT 16/10 A3024 RMK A01 T01610099  RH  067%=      5-min Rain = 0
KST3 101038Z 18010KT 16/10 A3024 RMK A01 T01620099  RH  066%=      5-min Rain = 0
KST3 101039Z 18010KT 16/10 A3024 RMK A01 T01620099  RH  066%=      5-min Rain = 0
KST3 101040Z 18009KT 16/10 A3024 RMK A01 T01620099  RH  066%=      5-min Rain = 0
KST3 101041Z 18010KT 16/10 A3024 RMK A01 T01620099  RH  066%=      5-min Rain = 0
KST3 101042Z 18010KT 16/10 A3024 RMK A01 T01620099  RH  066%=      5-min Rain = 0
KST3 101043Z 18011KT 16/10 A3024 RMK A01 T01630099  RH  066%=      5-min Rain = 0
KST3 101044Z 18010KT 16/10 A3024 RMK A01 T01630099  RH  066%=      5-min Rain = 0
KST3 101045Z 18010KT 16/10 A3024 RMK A01 T01630099  RH  066%=      5-min Rain = 0
KST3 101046Z 18010KT 16/10 A3024 RMK A01 T01630099  RH  066%=      5-min Rain = 0
KST3 101047Z 18009KT 16/10 A3024 RMK A01 T01620099  RH  066%=      5-min Rain = 0
KST3 101048Z 18009KT 16/10 A3024 RMK A01 T01620099  RH  066%=      5-min Rain = 0
KST3 101049Z 18010KT 16/10 A3024 RMK A01 T01610099  RH  066%=      5-min Rain = 0
KST3 101050Z 18010KT 16/10 A3024 RMK A01 T01610099  RH  067%=      5-min Rain = 0
KST3 101051Z 18009KT 16/10 A3024 RMK A01 T01610099  RH  067%=      5-min Rain = 0
KST3 101052Z 18009KT 16/10 A3024 RMK A01 T01610099  RH  067%=      5-min Rain = 0
KST3 101053Z 18009KT 16/10 A3024 RMK A01 T01600099  RH  067%=      5-min Rain = 0
KST3 101054Z 18010KT 16/10 A3024 RMK A01 T01600099  RH  067%=      5-min Rain = 0
KST3 101055Z 18009KT 16/10 A3024 RMK A01 T01600099  RH  067%=      5-min Rain = 0
KST3 101056Z 18009KT 16/10 A3024 RMK A01 T01590099  RH  067%=      5-min Rain = 0
KST3 101057Z 18009KT 16/10 A3024 RMK A01 T01590099  RH  067%=      5-min Rain = 0
KST3 101058Z 18009KT 16/10 A3024 RMK A01 T01590099  RH  068%=      5-min Rain = 0
KST3 101059Z 18009KT 16/10 A3025 RMK A01 T01590099  RH  068%=      5-min Rain = 0
KST3 101100Z 18009KT 16/10 A3025 RMK A01 T01580099  RH  068%=      5-min Rain = 0
KST3 101101Z 18008KT 16/10 A3025 RMK A01 T01590099  RH  068%=      5-min Rain = 0
KST3 101102Z 18009KT 16/10 A3025 RMK A01 T01580099  RH  068%=      5-min Rain = 0
KST3 101103Z 18008KT 16/10 A3025 RMK A01 T01580099  RH  068%=      5-min Rain = 0
KST3 101104Z 18008KT 16/10 A3025 RMK A01 T01580099  RH  068%=      5-min Rain = 0
KST3 101105Z 18009KT 16/10 A3025 RMK A01 T01570099  RH  068%=      5-min Rain = 0
KST3 101106Z 18009KT 16/10 A3025 RMK A01 T01560099  RH  069%=      5-min Rain = 0
KST3 101107Z 18008KT 16/10 A3025 RMK A01 T01560099  RH  069%=      5-min Rain = 0
KST3 101108Z 18009KT 16/10 A3025 RMK A01 T01560099  RH  069%=      5-min Rain = 0
KST3 101109Z 18008KT 16/10 A3025 RMK A01 T01560099  RH  069%=      5-min Rain = 0
KST3 101110Z 18009KT 16/10 A3025 RMK A01 T01560099  RH  069%=      5-min Rain = 0
KST3 101111Z 18008KT 16/10 A3025 RMK A01 T01560099  RH  069%=      5-min Rain = 0
KST3 101112Z 18008KT 16/10 A3025 RMK A01 T01550099  RH  069%=      5-min Rain = 0
KST3 101113Z 17007KT 16/10 A3025 RMK A01 T01550099  RH  069%=      5-min Rain = 0
KST3 101114Z 18008KT 16/10 A3025 RMK A01 T01550099  RH  069%=      5-min Rain = 0
KST3 101115Z 18007KT 15/10 A3025 RMK A01 T01540099  RH  069%=      5-min Rain = 0
KST3 101116Z 18007KT 15/10 A3025 RMK A01 T01540099  RH  070%=      5-min Rain = 0
KST3 101117Z 18007KT 15/10 A3025 RMK A01 T01530098  RH  070%=      5-min Rain = 0
KST3 101118Z 18007KT 15/10 A3025 RMK A01 T01530099  RH  070%=      5-min Rain = 0
KST3 101119Z 19006KT 15/10 A3025 RMK A01 T01520098  RH  070%=      5-min Rain = 0
KST3 101120Z 19006KT 15/10 A3025 RMK A01 T01520099  RH  071%=      5-min Rain = 0
KST3 101121Z 18006KT 15/10 A3025 RMK A01 T01510098  RH  071%=      5-min Rain = 0
KST3 101122Z 18007KT 15/10 A3025 RMK A01 T01510098  RH  071%=      5-min Rain = 0
KST3 101123Z 18006KT 15/10 A3025 RMK A01 T01510099  RH  071%=      5-min Rain = 0
KST3 101124Z 19006KT 15/10 A3025 RMK A01 T01500098  RH  071%=      5-min Rain = 0
KST3 101125Z 19006KT 15/10 A3025 RMK A01 T01500099  RH  071%=      5-min Rain = 0
KST3 101126Z 19005KT 15/10 A3025 RMK A01 T01480097  RH  071%=      5-min Rain = 0
KST3 101127Z 19006KT 15/10 A3025 RMK A01 T01460096  RH  072%=      5-min Rain = 0
KST3 101128Z 19006KT 14/10 A3025 RMK A01 T01440096  RH  073%=      5-min Rain = 0
KST3 101129Z 19006KT 14/10 A3025 RMK A01 T01440097  RH  073%=      5-min Rain = 0
KST3 101130Z 19006KT 14/10 A3025 RMK A01 T01430097  RH  074%=      5-min Rain = 0
KST3 101131Z 19007KT 14/10 A3025 RMK A01 T01430097  RH  074%=      5-min Rain = 0
KST3 101132Z 19007KT 14/10 A3025 RMK A01 T01430097  RH  074%=      5-min Rain = 0
KST3 101133Z 19007KT 14/10 A3025 RMK A01 T01430097  RH  074%=      5-min Rain = 0
KST3 101134Z 19007KT 14/10 A3025 RMK A01 T01440098  RH  074%=      5-min Rain = 0
KST3 101135Z 19007KT 14/10 A3025 RMK A01 T01440098  RH  074%=      5-min Rain = 0
KST3 101136Z 19007KT 14/10 A3025 RMK A01 T01440098  RH  074%=      5-min Rain = 0
KST3 101137Z 19007KT 14/10 A3025 RMK A01 T01440098  RH  074%=      5-min Rain = 0
KST3 101138Z 19007KT 14/10 A3025 RMK A01 T01440098  RH  074%=      5-min Rain = 0
KST3 101139Z 19007KT 14/10 A3025 RMK A01 T01440098  RH  074%=      5-min Rain = 0
KST3 101140Z 19007KT 14/10 A3025 RMK A01 T01440098  RH  074%=      5-min Rain = 0
KST3 101141Z 19007KT 14/10 A3025 RMK A01 T01440098  RH  074%=      5-min Rain = 0
KST3 101142Z 19007KT 14/10 A3025 RMK A01 T01440098  RH  074%=      5-min Rain = 0
KST3 101143Z 19007KT 14/10 A3025 RMK A01 T01440098  RH  073%=      5-min Rain = 0
KST3 101144Z 19008KT 14/10 A3025 RMK A01 T01440098  RH  074%=      5-min Rain = 0
KST3 101145Z 19007KT 14/10 A3025 RMK A01 T01440098  RH  074%=      5-min Rain = 0
KST3 101146Z 19007KT 14/10 A3026 RMK A01 T01440098  RH  074%=      5-min Rain = 0
KST3 101147Z 19008KT 14/10 A3026 RMK A01 T01440098  RH  074%=      5-min Rain = 0
KST3 101148Z 19007KT 14/10 A3026 RMK A01 T01440098  RH  074%=      5-min Rain = 0
KST3 101149Z 19008KT 14/10 A3026 RMK A01 T01430098  RH  074%=      5-min Rain = 0
KST3 101150Z 19007KT 14/10 A3026 RMK A01 T01430098  RH  074%=      5-min Rain = 0
KST3 101151Z 19007KT 14/10 A3026 RMK A01 T01430098  RH  074%=      5-min Rain = 0
KST3 101152Z 20007KT 14/10 A3026 RMK A01 T01430098  RH  074%=      5-min Rain = 0
KST3 101153Z 19008KT 14/10 A3026 RMK A01 T01420098  RH  074%=      5-min Rain = 0
KST3 101154Z 19007KT 14/10 A3026 RMK A01 T01420098  RH  074%=      5-min Rain = 0
KST3 101155Z 20007KT 14/10 A3026 RMK A01 T01430098  RH  074%=      5-min Rain = 0
KST3 101156Z 20007KT 14/10 A3026 RMK A01 T01420098  RH  075%=      5-min Rain = 0
KST3 101157Z 20008KT 14/10 A3026 RMK A01 T01420098  RH  075%=      5-min Rain = 0
KST3 101158Z 20008KT 14/10 A3026 RMK A01 T01420098  RH  075%=      5-min Rain = 0
KST3 101159Z 20008KT 14/10 A3026 RMK A01 T01420098  RH  075%=      5-min Rain = 0
KST3 101200Z 20008KT 14/10 A3026 RMK A01 T01420098  RH  075%=      5-min Rain = 0
KST3 101201Z 20007KT 14/10 A3026 RMK A01 T01410098  RH  075%=      5-min Rain = 0
KST3 101202Z 20008KT 14/10 A3026 RMK A01 T01410098  RH  075%=      5-min Rain = 0
KST3 101203Z 20008KT 14/10 A3026 RMK A01 T01400097  RH  075%=      5-min Rain = 0
KST3 101204Z 20008KT 14/10 A3026 RMK A01 T01400098  RH  075%=      5-min Rain = 0
KST3 101205Z 20008KT 14/10 A3026 RMK A01 T01400097  RH  076%=      5-min Rain = 0
KST3 101206Z 20007KT 14/10 A3026 RMK A01 T01400098  RH  076%=      5-min Rain = 0
KST3 101207Z 20007KT 14/10 A3026 RMK A01 T01390097  RH  076%=      5-min Rain = 0
KST3 101208Z 20008KT 14/10 A3026 RMK A01 T01380097  RH  076%=      5-min Rain = 0
KST3 101209Z 20008KT 14/10 A3026 RMK A01 T01370097  RH  076%=      5-min Rain = 0
KST3 101210Z 20008KT 14/10 A3026 RMK A01 T01360096  RH  077%=      5-min Rain = 0
KST3 101211Z 20007KT 14/10 A3026 RMK A01 T01350097  RH  077%=      5-min Rain = 0
KST3 101212Z 20007KT 14/10 A3026 RMK A01 T01350096  RH  078%=      5-min Rain = 0
KST3 101213Z 20008KT 14/10 A3027 RMK A01 T01350097  RH  078%=      5-min Rain = 0
KST3 101214Z 20007KT 14/10 A3027 RMK A01 T01360097  RH  077%=      5-min Rain = 0
KST3 101215Z 20008KT 14/10 A3027 RMK A01 T01370097  RH  077%=      5-min Rain = 0
KST3 101216Z 20007KT 14/10 A3027 RMK A01 T01360097  RH  077%=      5-min Rain = 0
KST3 101217Z 20008KT 14/10 A3027 RMK A01 T01370098  RH  077%=      5-min Rain = 0
KST3 101218Z 19008KT 14/10 A3027 RMK A01 T01380098  RH  077%=      5-min Rain = 0
KST3 101219Z 20008KT 14/10 A3027 RMK A01 T01380098  RH  077%=      5-min Rain = 0
KST3 101220Z 20008KT 14/10 A3027 RMK A01 T01390098  RH  076%=      5-min Rain = 0
KST3 101221Z 19008KT 14/10 A3027 RMK A01 T01390098  RH  076%=      5-min Rain = 0
KST3 101222Z 20009KT 14/10 A3027 RMK A01 T01400098  RH  076%=      5-min Rain = 0
KST3 101223Z 20008KT 14/10 A3027 RMK A01 T01400098  RH  076%=      5-min Rain = 0
KST3 101224Z 20008KT 14/10 A3027 RMK A01 T01410098  RH  076%=      5-min Rain = 0
KST3 101225Z 20008KT 14/10 A3027 RMK A01 T01410098  RH  075%=      5-min Rain = 0
KST3 101226Z 20008KT 14/10 A3027 RMK A01 T01410098  RH  075%=      5-min Rain = 0
KST3 101227Z 19008KT 14/10 A3027 RMK A01 T01410098  RH  075%=      5-min Rain = 0
KST3 101228Z 19008KT 14/10 A3027 RMK A01 T01410098  RH  075%=      5-min Rain = 0
KST3 101229Z 19009KT 14/10 A3027 RMK A01 T01410099  RH  075%=      5-min Rain = 0
KST3 101230Z 19009KT 14/10 A3027 RMK A01 T01420099  RH  075%=      5-min Rain = 0
KST3 101231Z 19008KT 14/10 A3028 RMK A01 T01420098  RH  075%=      5-min Rain = 0
KST3 101232Z 19008KT 14/10 A3028 RMK A01 T01410098  RH  075%=      5-min Rain = 0
KST3 101233Z 19008KT 14/10 A3028 RMK A01 T01420098  RH  075%=      5-min Rain = 0
KST3 101234Z 19008KT 14/10 A3028 RMK A01 T01420099  RH  075%=      5-min Rain = 0
KST3 101235Z 19009KT 14/10 A3028 RMK A01 T01420099  RH  075%=      5-min Rain = 0
KST3 101236Z 19008KT 14/10 A3028 RMK A01 T01420099  RH  075%=      5-min Rain = 0
KST3 101237Z 19008KT 14/10 A3028 RMK A01 T01420099  RH  075%=      5-min Rain = 0
KST3 101238Z 19008KT 14/10 A3028 RMK A01 T01420099  RH  075%=      5-min Rain = 0
KST3 101239Z 19008KT 14/10 A3028 RMK A01 T01430099  RH  075%=      5-min Rain = 0
KST3 101240Z 19008KT 14/10 A3028 RMK A01 T01420099  RH  075%=      5-min Rain = 0
KST3 101241Z 19008KT 14/10 A3028 RMK A01 T01420099  RH  075%=      5-min Rain = 0
KST3 101242Z 19008KT 14/10 A3028 RMK A01 T01430099  RH  075%=      5-min Rain = 0
KST3 101243Z 19008KT 14/10 A3028 RMK A01 T01430099  RH  075%=      5-min Rain = 0
KST3 101244Z 19008KT 14/10 A3028 RMK A01 T01430099  RH  075%=      5-min Rain = 0
KST3 101245Z 19008KT 14/10 A3028 RMK A01 T01430099  RH  075%=      5-min Rain = 0
KST3 101246Z 19008KT 14/10 A3028 RMK A01 T01430099  RH  075%=      5-min Rain = 0
KST3 101247Z 19008KT 14/10 A3028 RMK A01 T01420099  RH  075%=      5-min Rain = 0
KST3 101248Z 20008KT 14/10 A3028 RMK A01 T01420099  RH  075%=      5-min Rain = 0
KST3 101249Z 20008KT 14/10 A3028 RMK A01 T01420099  RH  075%=      5-min Rain = 0
KST3 101250Z 19008KT 14/10 A3028 RMK A01 T01420099  RH  075%=      5-min Rain = 0
KST3 101251Z 19008KT 14/10 A3028 RMK A01 T01430100  RH  075%=      5-min Rain = 0
KST3 101252Z 19008KT 14/10 A3028 RMK A01 T01420099  RH  075%=      5-min Rain = 0
KST3 101253Z 19008KT 14/10 A3028 RMK A01 T01430099  RH  075%=      5-min Rain = 0
KST3 101254Z 19008KT 14/10 A3028 RMK A01 T01430099  RH  075%=      5-min Rain = 0
KST3 101255Z 20008KT 14/10 A3028 RMK A01 T01440100  RH  075%=      5-min Rain = 0
KST3 101256Z 19008KT 14/10 A3028 RMK A01 T01440099  RH  075%=      5-min Rain = 0
KST3 101257Z 19008KT 14/10 A3028 RMK A01 T01440100  RH  075%=      5-min Rain = 0
KST3 101258Z 19008KT 15/10 A3028 RMK A01 T01450100  RH  074%=      5-min Rain = 0
KST3 101259Z 19009KT 15/10 A3028 RMK A01 T01450100  RH  074%=      5-min Rain = 0
KST3 101300Z 19008KT 15/10 A3028 RMK A01 T01450100  RH  074%=      5-min Rain = 0
KST3 101301Z 19008KT 15/10 A3028 RMK A01 T01450100  RH  074%=      5-min Rain = 0
KST3 101302Z 19009KT 15/10 A3028 RMK A01 T01460100  RH  074%=      5-min Rain = 0
KST3 101303Z 19009KT 15/10 A3028 RMK A01 T01460100  RH  074%=      5-min Rain = 0
KST3 101304Z 19009KT 15/10 A3028 RMK A01 T01460100  RH  074%=      5-min Rain = 0
KST3 101305Z 19008KT 15/10 A3028 RMK A01 T01470100  RH  073%=      5-min Rain = 0
KST3 101306Z 19009KT 15/10 A3028 RMK A01 T01470100  RH  073%=      5-min Rain = 0
KST3 101307Z 19008KT 15/10 A3028 RMK A01 T01470100  RH  073%=      5-min Rain = 0
KST3 101308Z 19009KT 15/10 A3028 RMK A01 T01470100  RH  073%=      5-min Rain = 0
KST3 101309Z 19009KT 15/10 A3028 RMK A01 T01480100  RH  073%=      5-min Rain = 0
KST3 101310Z 19008KT 15/10 A3028 RMK A01 T01480100  RH  073%=      5-min Rain = 0
KST3 101311Z 19009KT 15/10 A3028 RMK A01 T01490100  RH  073%=      5-min Rain = 0
KST3 101312Z 19009KT 15/10 A3028 RMK A01 T01490100  RH  073%=      5-min Rain = 0
KST3 101313Z 19008KT 15/10 A3028 RMK A01 T01490101  RH  072%=      5-min Rain = 0
KST3 101314Z 19008KT 15/10 A3028 RMK A01 T01500101  RH  072%=      5-min Rain = 0
KST3 101315Z 19009KT 15/10 A3028 RMK A01 T01500100  RH  072%=      5-min Rain = 0
KST3 101316Z 19009KT 15/10 A3028 RMK A01 T01500101  RH  072%=      5-min Rain = 0
KST3 101317Z 19009KT 15/10 A3028 RMK A01 T01510101  RH  072%=      5-min Rain = 0
KST3 101318Z 19008KT 15/10 A3028 RMK A01 T01520101  RH  072%=      5-min Rain = 0
KST3 101319Z 19009KT 15/10 A3028 RMK A01 T01520101  RH  071%=      5-min Rain = 0
KST3 101320Z 19008KT 15/10 A3028 RMK A01 T01520101  RH  071%=      5-min Rain = 0
KST3 101321Z 19008KT 15/10 A3028 RMK A01 T01530101  RH  071%=      5-min Rain = 0
KST3 101322Z 19008KT 15/10 A3028 RMK A01 T01540101  RH  071%=      5-min Rain = 0
KST3 101323Z 19009KT 15/10 A3028 RMK A01 T01540101  RH  071%=      5-min Rain = 0
KST3 101324Z 19008KT 16/10 A3028 RMK A01 T01550101  RH  070%=      5-min Rain = 0
KST3 101325Z 19008KT 16/10 A3028 RMK A01 T01550102  RH  070%=      5-min Rain = 0
KST3 101326Z 19007KT 16/10 A3028 RMK A01 T01560102  RH  070%=      5-min Rain = 0
KST3 101327Z 19008KT 16/10 A3028 RMK A01 T01560102  RH  070%=      5-min Rain = 0
KST3 101328Z 19008KT 16/10 A3028 RMK A01 T01570102  RH  070%=      5-min Rain = 0
KST3 101329Z 19007KT 16/10 A3028 RMK A01 T01570102  RH  070%=      5-min Rain = 0
KST3 101330Z 19010KT 16/10 A3028 RMK A01 T01570102  RH  070%=      5-min Rain = 0
KST3 101331Z 19008KT 16/10 A3028 RMK A01 T01570102  RH  069%=      5-min Rain = 0
KST3 101332Z 19009KT 16/10 A3028 RMK A01 T01580102  RH  070%=      5-min Rain = 0
KST3 101333Z 19010KT 16/10 A3028 RMK A01 T01580102  RH  069%=      5-min Rain = 0
KST3 101334Z 20009KT 16/10 A3028 RMK A01 T01590101  RH  069%=      5-min Rain = 0
KST3 101335Z 19009KT 16/10 A3028 RMK A01 T01590101  RH  069%=      5-min Rain = 0
KST3 101336Z 19009KT 16/10 A3028 RMK A01 T01600102  RH  069%=      5-min Rain = 0
KST3 101337Z 19010KT 16/10 A3028 RMK A01 T01600102  RH  068%=      5-min Rain = 0
KST3 101338Z 19009KT 16/10 A3028 RMK A01 T01610101  RH  068%=      5-min Rain = 0
KST3 101339Z 19009KT 16/10 A3028 RMK A01 T01610102  RH  068%=      5-min Rain = 0
KST3 101340Z 19009KT 16/10 A3028 RMK A01 T01610102  RH  068%=      5-min Rain = 0
KST3 101341Z 19009KT 16/10 A3028 RMK A01 T01620102  RH  068%=      5-min Rain = 0
KST3 101342Z 19009KT 16/10 A3028 RMK A01 T01620102  RH  068%=      5-min Rain = 0
KST3 101343Z 19008KT 16/10 A3028 RMK A01 T01630102  RH  067%=      5-min Rain = 0
KST3 101344Z 19010KT 16/10 A3028 RMK A01 T01640103  RH  067%=      5-min Rain = 0
KST3 101345Z 19011KT 16/10 A3028 RMK A01 T01640102  RH  067%=      5-min Rain = 0
KST3 101346Z 18010KT 16/10 A3028 RMK A01 T01640102  RH  066%=      5-min Rain = 0
KST3 101347Z 19009KT 17/10 A3028 RMK A01 T01650102  RH  066%=      5-min Rain = 0
KST3 101348Z 18008KT 17/10 A3028 RMK A01 T01650103  RH  066%=      5-min Rain = 0
KST3 101349Z 18009KT 17/10 A3029 RMK A01 T01660103  RH  066%=      5-min Rain = 0
KST3 101350Z 19008KT 17/10 A3029 RMK A01 T01670103  RH  066%=      5-min Rain = 0
KST3 101351Z 19007KT 17/10 A3029 RMK A01 T01670103  RH  066%=      5-min Rain = 0
KST3 101352Z 18009KT 17/10 A3029 RMK A01 T01680103  RH  066%=      5-min Rain = 0
KST3 101353Z 18009KT 17/10 A3029 RMK A01 T01680103  RH  066%=      5-min Rain = 0
KST3 101354Z 18009KT 17/10 A3028 RMK A01 T01690103  RH  065%=      5-min Rain = 0
KST3 101355Z 18009KT 17/10 A3028 RMK A01 T01690103  RH  065%=      5-min Rain = 0
KST3 101356Z 18009KT 17/10 A3029 RMK A01 T01690103  RH  065%=      5-min Rain = 0
KST3 101357Z 18010KT 17/10 A3029 RMK A01 T01700103  RH  065%=      5-min Rain = 0
KST3 101358Z 18009KT 17/10 A3029 RMK A01 T01700103  RH  064%=      5-min Rain = 0
KST3 101359Z 19009KT 17/10 A3029 RMK A01 T01700103  RH  065%=      5-min Rain = 0
KST3 101400Z 19008KT 17/10 A3029 RMK A01 T01720104  RH  064%=      5-min Rain = 0
KST3 101401Z 19008KT 17/10 A3029 RMK A01 T01730104  RH  064%=      5-min Rain = 0
KST3 101402Z 18009KT 17/11 A3028 RMK A01 T01740105  RH  064%=      5-min Rain = 0
KST3 101403Z 18011KT 17/10 A3028 RMK A01 T01740104  RH  063%=      5-min Rain = 0
KST3 101404Z 19010KT 17/10 A3028 RMK A01 T01740103  RH  063%=      5-min Rain = 0
KST3 101405Z 18010KT 17/10 A3028 RMK A01 T01740104  RH  063%=      5-min Rain = 0
KST3 101406Z 18009KT 17/10 A3029 RMK A01 T01740104  RH  063%=      5-min Rain = 0
KST3 101407Z 19009KT 18/10 A3029 RMK A01 T01750104  RH  063%=      5-min Rain = 0
KST3 101408Z 17009KT 18/10 A3029 RMK A01 T01750103  RH  063%=      5-min Rain = 0
KST3 101409Z 18011KT 18/11 A3029 RMK A01 T01760105  RH  063%=      5-min Rain = 0
KST3 101410Z 18011KT 18/11 A3029 RMK A01 T01780105  RH  062%=      5-min Rain = 0
KST3 101411Z 18010KT 18/10 A3029 RMK A01 T01780104  RH  062%=      5-min Rain = 0
KST3 101412Z 18011KT 18/10 A3029 RMK A01 T01780104  RH  062%=      5-min Rain = 0
KST3 101413Z 18010KT 18/10 A3029 RMK A01 T01780104  RH  062%=      5-min Rain = 0
KST3 101414Z 18009KT 18/10 A3029 RMK A01 T01780104  RH  062%=      5-min Rain = 0
KST3 101415Z 18010KT 18/11 A3029 RMK A01 T01790105  RH  062%=      5-min Rain = 0
KST3 101421Z 18010KT 18/11 A3029 RMK A01 T01800105  RH  062%=      5-min Rain = 0
KST3 101422Z 18011KT 18/11 A3029 RMK A01 T01810105  RH  061%=      5-min Rain = 0
KST3 101423Z 18009KT 18/11 A3029 RMK A01 T01810105  RH  061%=      5-min Rain = 0
KST3 101424Z 19010KT 18/11 A3029 RMK A01 T01810105  RH  061%=      5-min Rain = 0
KST3 101425Z 18010KT 18/11 A3029 RMK A01 T01830106  RH  061%=      5-min Rain = 0
KST3 101426Z 19009KT 18/11 A3029 RMK A01 T01840106  RH  060%=      5-min Rain = 0
KST3 101427Z 18009KT 19/11 A3029 RMK A01 T01850107  RH  060%=      5-min Rain = 0
KST3 101428Z 18010KT 19/11 A3029 RMK A01 T01860107  RH  060%=      5-min Rain = 0
KST3 101429Z 18010KT 19/11 A3029 RMK A01 T01860106  RH  060%=      5-min Rain = 0
KST3 101430Z 19010KT 19/11 A3029 RMK A01 T01860106  RH  060%=      5-min Rain = 0
KST3 101431Z 20009KT 19/11 A3029 RMK A01 T01860107  RH  060%=      5-min Rain = 0
KST3 101432Z 19010KT 19/11 A3029 RMK A01 T01870107  RH  060%=      5-min Rain = 0
KST3 101433Z 19011KT 19/11 A3029 RMK A01 T01880106  RH  059%=      5-min Rain = 0
KST3 101434Z 20010KT 19/11 A3029 RMK A01 T01880106  RH  059%=      5-min Rain = 0
KST3 101435Z 20010KT 19/11 A3029 RMK A01 T01870106  RH  059%=      5-min Rain = 0
KST3 101436Z 20009KT 19/11 A3029 RMK A01 T01880107  RH  059%=      5-min Rain = 0
KST3 101437Z 19008KT 19/11 A3029 RMK A01 T01900108  RH  059%=      5-min Rain = 0
KST3 101438Z 19010KT 19/11 A3029 RMK A01 T01910108  RH  059%=      5-min Rain = 0
KST3 101439Z 19009KT 19/11 A3029 RMK A01 T01900107  RH  058%=      5-min Rain = 0
KST3 101440Z 19012KT 19/11 A3029 RMK A01 T01900107  RH  059%=      5-min Rain = 0
KST3 101441Z 20011KT 19/11 A3029 RMK A01 T01900107  RH  058%=      5-min Rain = 0
KST3 101442Z 19010KT 19/11 A3029 RMK A01 T01900107  RH  058%=      5-min Rain = 0
KST3 101443Z 19010KT 19/11 A3029 RMK A01 T01900107  RH  058%=      5-min Rain = 0
KST3 101444Z 19012KT 19/11 A3029 RMK A01 T01920107  RH  058%=      5-min Rain = 0
KST3 101445Z 20012KT 19/11 A3029 RMK A01 T01920107  RH  058%=      5-min Rain = 0
KST3 101446Z 19014KT 19/11 A3029 RMK A01 T01920106  RH  057%=      5-min Rain = 0
KST3 101447Z 19012KT 19/11 A3029 RMK A01 T01920106  RH  057%=      5-min Rain = 0
KST3 101448Z 19013KT 19/11 A3029 RMK A01 T01910106  RH  058%=      5-min Rain = 0
KST3 101449Z 18015KT 19/11 A3029 RMK A01 T01920106  RH  057%=      5-min Rain = 0
KST3 101450Z 19012KT 19/11 A3029 RMK A01 T01940107  RH  057%=      5-min Rain = 0
KST3 101451Z 18012KT 19/11 A3029 RMK A01 T01940107  RH  057%=      5-min Rain = 0
KST3 101452Z 18013KT 20/11 A3029 RMK A01 T01950108  RH  057%=      5-min Rain = 0
KST3 101453Z 18012KT 20/11 A3029 RMK A01 T01970107  RH  056%=      5-min Rain = 0
KST3 101454Z 18013KT 20/11 A3029 RMK A01 T01980107  RH  056%=      5-min Rain = 0
KST3 101455Z 18013KT 20/11 A3029 RMK A01 T01980107  RH  056%=      5-min Rain = 0
KST3 101456Z 18014KT 20/11 A3029 RMK A01 T01980108  RH  056%=      5-min Rain = 0
KST3 101457Z 18013KT 20/11 A3029 RMK A01 T01980107  RH  056%=      5-min Rain = 0
KST3 101458Z 18013KT 20/11 A3029 RMK A01 T01980107  RH  056%=      5-min Rain = 0
KST3 101459Z 19012KT 20/11 A3029 RMK A01 T02000108  RH  055%=      5-min Rain = 0
KST3 101500Z 19013KT 20/11 A3029 RMK A01 T02010108  RH  055%=      5-min Rain = 0
KST3 101501Z 20013KT 20/11 A3029 RMK A01 T02010108  RH  055%=      5-min Rain = 0
KST3 101502Z 19013KT 20/11 A3029 RMK A01 T02010108  RH  055%=      5-min Rain = 0
KST3 101503Z 19013KT 20/11 A3029 RMK A01 T02010108  RH  055%=      5-min Rain = 0
KST3 101504Z 18016KT 20/11 A3029 RMK A01 T02020108  RH  055%=      5-min Rain = 0
KST3 101505Z 19013KT 20/11 A3029 RMK A01 T02020108  RH  054%=      5-min Rain = 0
KST3 101506Z 20015KT 20/11 A3029 RMK A01 T02020108  RH  055%=      5-min Rain = 0
KST3 101507Z 19012KT 20/11 A3029 RMK A01 T02020108  RH  055%=      5-min Rain = 0
KST3 101508Z 19014KT 20/11 A3029 RMK A01 T02030108  RH  054%=      5-min Rain = 0
KST3 101509Z 19015KT 20/11 A3029 RMK A01 T02040108  RH  054%=      5-min Rain = 0
KST3 101510Z 19013KT 20/11 A3029 RMK A01 T02040108  RH  054%=      5-min Rain = 0
KST3 101511Z 19012KT 20/11 A3029 RMK A01 T02040109  RH  054%=      5-min Rain = 0
KST3 101512Z 19011KT 21/11 A3029 RMK A01 T02050110  RH  054%=      5-min Rain = 0
KST3 101513Z 19015KT 21/11 A3029 RMK A01 T02070110  RH  054%=      5-min Rain = 0
KST3 101514Z 19014KT 21/11 A3029 RMK A01 T02070109  RH  053%=      5-min Rain = 0
KST3 101515Z 19014KT 21/11 A3029 RMK A01 T02070110  RH  054%=      5-min Rain = 0
KST3 101516Z 20013KT 21/11 A3029 RMK A01 T02080109  RH  053%=      5-min Rain = 0
KST3 101517Z 19015KT 21/11 A3029 RMK A01 T02080110  RH  053%=      5-min Rain = 0
KST3 101518Z 19015KT 21/11 A3029 RMK A01 T02090110  RH  053%=      5-min Rain = 0
KST3 101519Z 19015KT 21/11 A3029 RMK A01 T02090110  RH  053%=      5-min Rain = 0
KST3 101520Z 19015KT 21/11 A3029 RMK A01 T02090109  RH  053%=      5-min Rain = 0
KST3 101521Z 20014KT 21/11 A3029 RMK A01 T02090110  RH  053%=      5-min Rain = 0
KST3 101522Z 21013G18KT 21/11 A3029 RMK A01 T02100110  RH  053%=      5-min Rain = 0
KST3 101523Z 20013KT 21/11 A3029 RMK A01 T02110111  RH  052%=      5-min Rain = 0
KST3 101524Z 19015KT 21/11 A3029 RMK A01 T02140111  RH  052%=      5-min Rain = 0
KST3 101525Z 20015KT 22/11 A3029 RMK A01 T02160110  RH  051%=      5-min Rain = 0
KST3 101526Z 20013KT 22/11 A3029 RMK A01 T02170110  RH  051%=      5-min Rain = 0
KST3 101527Z 20012G18KT 22/11 A3029 RMK A01 T02170112  RH  051%=      5-min Rain = 0
KST3 101528Z 19015KT 22/11 A3029 RMK A01 T02200111  RH  050%=      5-min Rain = 0
KST3 101529Z 19017KT 22/11 A3029 RMK A01 T02190109  RH  050%=      5-min Rain = 0
KST3 101530Z 19016KT 22/11 A3029 RMK A01 T02170109  RH  050%=      5-min Rain = 0
KST3 101531Z 19015KT 22/11 A3029 RMK A01 T02160109  RH  050%=      5-min Rain = 0
KST3 101532Z 18014KT 22/11 A3029 RMK A01 T02170110  RH  050%=      5-min Rain = 0
KST3 101533Z 19013KT 22/11 A3029 RMK A01 T02170110  RH  050%=      5-min Rain = 0
KST3 101534Z 19013KT 22/11 A3029 RMK A01 T02200111  RH  050%=      5-min Rain = 0
KST3 101535Z 19015KT 22/11 A3029 RMK A01 T02210111  RH  050%=      5-min Rain = 0
KST3 101536Z 20014KT 22/11 A3029 RMK A01 T02210110  RH  049%=      5-min Rain = 0
KST3 101537Z 20012KT 22/11 A3029 RMK A01 T02210111  RH  050%=      5-min Rain = 0
KST3 101538Z 18013KT 22/11 A3029 RMK A01 T02220112  RH  050%=      5-min Rain = 0
KST3 101539Z 18013KT 22/11 A3029 RMK A01 T02230111  RH  049%=      5-min Rain = 0
KST3 101540Z 19013G18KT 22/11 A3029 RMK A01 T02240112  RH  049%=      5-min Rain = 0
KST3 101541Z 21015KT 22/11 A3029 RMK A01 T02240111  RH  049%=      5-min Rain = 0
KST3 101542Z 20013KT 22/11 A3029 RMK A01 T02240112  RH  049%=      5-min Rain = 0
KST3 101543Z 20014KT 23/11 A3029 RMK A01 T02250111  RH  049%=      5-min Rain = 0
KST3 101544Z 19014KT 22/11 A3029 RMK A01 T02240111  RH  049%=      5-min Rain = 0
KST3 101545Z 18014KT 22/11 A3028 RMK A01 T02240111  RH  049%=      5-min Rain = 0
KST3 101546Z 19014KT 22/11 A3028 RMK A01 T02240112  RH  049%=      5-min Rain = 0
KST3 101547Z 20013KT 22/11 A3028 RMK A01 T02240112  RH  049%=      5-min Rain = 0
KST3 101548Z 21014KT 23/11 A3028 RMK A01 T02250112  RH  049%=      5-min Rain = 0
KST3 101549Z 21017KT 23/11 A3028 RMK A01 T02270110  RH  048%=      5-min Rain = 0
KST3 101550Z 20016KT 23/11 A3028 RMK A01 T02280110  RH  047%=      5-min Rain = 0
KST3 101551Z 22014KT 23/11 A3028 RMK A01 T02280111  RH  048%=      5-min Rain = 0
KST3 101552Z 21015KT 23/11 A3028 RMK A01 T02300111  RH  047%=      5-min Rain = 0
KST3 101553Z 19016KT 23/11 A3028 RMK A01 T02300109  RH  046%=      5-min Rain = 0
KST3 101554Z 21014G23KT 23/11 A3028 RMK A01 T02270109  RH  047%=      5-min Rain = 0
KST3 101555Z 21018KT 23/11 A3028 RMK A01 T02280110  RH  047%=      5-min Rain = 0
KST3 101556Z 20017KT 23/11 A3028 RMK A01 T02290109  RH  047%=      5-min Rain = 0
KST3 101557Z 20016KT 23/11 A3028 RMK A01 T02280109  RH  047%=      5-min Rain = 0
KST3 101558Z 20014KT 23/11 A3028 RMK A01 T02270110  RH  047%=      5-min Rain = 0
KST3 101559Z 20014KT 23/11 A3028 RMK A01 T02270110  RH  047%=      5-min Rain = 0
KST3 101600Z 20014KT 23/11 A3028 RMK A01 T02280110  RH  047%=      5-min Rain = 0
KST3 101601Z 21016KT 23/11 A3028 RMK A01 T02290110  RH  047%=      5-min Rain = 0
KST3 101602Z 21017KT 23/11 A3028 RMK A01 T02290110  RH  047%=      5-min Rain = 0
KST3 101603Z 21016KT 23/11 A3028 RMK A01 T02270108  RH  047%=      5-min Rain = 0
KST3 101604Z 21016KT 23/11 A3028 RMK A01 T02260110  RH  048%=      5-min Rain = 0
KST3 101605Z 19014KT 23/11 A3028 RMK A01 T02290111  RH  047%=      5-min Rain = 0
KST3 101606Z 20011KT 23/11 A3028 RMK A01 T02310111  RH  047%=      5-min Rain = 0
KST3 101607Z 20015KT 23/11 A3028 RMK A01 T02320112  RH  047%=      5-min Rain = 0
KST3 101608Z 20015KT 23/11 A3028 RMK A01 T02320111  RH  046%=      5-min Rain = 0
KST3 101609Z 21013KT 23/11 A3028 RMK A01 T02310111  RH  047%=      5-min Rain = 0
KST3 101610Z 18016KT 23/11 A3028 RMK A01 T02320112  RH  047%=      5-min Rain = 0
KST3 101611Z 19012KT 23/11 A3028 RMK A01 T02330112  RH  046%=      5-min Rain = 0
KST3 101612Z 19017KT 24/11 A3028 RMK A01 T02360112  RH  046%=      5-min Rain = 0
KST3 101613Z 19014KT 24/11 A3028 RMK A01 T02350110  RH  045%=      5-min Rain = 0
KST3 101614Z 19014G19KT 23/11 A3028 RMK A01 T02340111  RH  046%=      5-min Rain = 0
KST3 101615Z 20013G18KT 23/11 A3028 RMK A01 T02340111  RH  046%=      5-min Rain = 0
KST3 101616Z 19013KT 23/11 A3028 RMK A01 T02330111  RH  046%=      5-min Rain = 0
KST3 101617Z 18015KT 23/11 A3028 RMK A01 T02330111  RH  046%=      5-min Rain = 0
KST3 101618Z 19015KT 23/11 A3028 RMK A01 T02340111  RH  046%=      5-min Rain = 0
KST3 101619Z 20014KT 24/11 A3028 RMK A01 T02350111  RH  046%=      5-min Rain = 0
KST3 101620Z 20015KT 23/11 A3028 RMK A01 T02340111  RH  046%=      5-min Rain = 0
KST3 101621Z 20013KT 23/11 A3028 RMK A01 T02320112  RH  047%=      5-min Rain = 0
KST3 101622Z 20016KT 23/11 A3028 RMK A01 T02340113  RH  046%=      5-min Rain = 0
KST3 101623Z 19017KT 24/11 A3028 RMK A01 T02370110  RH  045%=      5-min Rain = 0
KST3 101624Z 20015KT 24/11 A3028 RMK A01 T02360110  RH  045%=      5-min Rain = 0
KST3 101625Z 20015KT 24/11 A3028 RMK A01 T02370110  RH  045%=      5-min Rain = 0
KST3 101626Z 20015KT 24/11 A3028 RMK A01 T02370109  RH  045%=      5-min Rain = 0
KST3 101627Z 20013KT 24/11 A3028 RMK A01 T02380110  RH  045%=      5-min Rain = 0
KST3 101628Z 20014KT 24/11 A3028 RMK A01 T02390111  RH  044%=      5-min Rain = 0
KST3 101629Z 20014KT 24/11 A3028 RMK A01 T02370111  RH  045%=      5-min Rain = 0
KST3 101630Z 18012G17KT 24/11 A3028 RMK A01 T02370112  RH  045%=      5-min Rain = 0
KST3 101631Z 19014KT 24/11 A3028 RMK A01 T02400113  RH  045%=      5-min Rain = 0
KST3 101632Z 20018KT 24/11 A3028 RMK A01 T02390110  RH  044%=      5-min Rain = 0
KST3 101633Z 20015KT 24/11 A3028 RMK A01 T02380110  RH  045%=      5-min Rain = 0
KST3 101634Z 21014KT 24/11 A3028 RMK A01 T02380111  RH  045%=      5-min Rain = 0
KST3 101635Z 20012KT 24/11 A3028 RMK A01 T02390112  RH  045%=      5-min Rain = 0
KST3 101636Z 21016KT 24/11 A3028 RMK A01 T02420112  RH  044%=      5-min Rain = 0
KST3 101637Z 21016KT 24/11 A3028 RMK A01 T02440112  RH  044%=      5-min Rain = 0
KST3 101638Z 20014KT 24/11 A3028 RMK A01 T02440111  RH  043%=      5-min Rain = 0
KST3 101639Z 20011G17KT 24/11 A3028 RMK A01 T02430111  RH  044%=      5-min Rain = 0
KST3 101640Z 21014KT 24/11 A3028 RMK A01 T02420112  RH  044%=      5-min Rain = 0
KST3 101641Z 21011KT 24/11 A3028 RMK A01 T02420112  RH  044%=      5-min Rain = 0
KST3 101642Z 20012KT 25/11 A3028 RMK A01 T02450114  RH  044%=      5-min Rain = 0
KST3 101643Z 21015KT 25/11 A3028 RMK A01 T02460112  RH  043%=      5-min Rain = 0
KST3 101644Z 21013KT 25/11 A3028 RMK A01 T02460112  RH  043%=      5-min Rain = 0
KST3 101645Z 20011KT 25/11 A3028 RMK A01 T02480112  RH  042%=      5-min Rain = 0
KST3 101646Z 21012G19KT 25/11 A3028 RMK A01 T02480112  RH  043%=      5-min Rain = 0
KST3 101647Z 19015KT 25/11 A3028 RMK A01 T02480111  RH  042%=      5-min Rain = 0
KST3 101648Z 21011KT 25/11 A3028 RMK A01 T02460112  RH  043%=      5-min Rain = 0
KST3 101649Z 21012KT 25/11 A3028 RMK A01 T02460111  RH  043%=      5-min Rain = 0
KST3 101650Z 20011KT 25/11 A3028 RMK A01 T02460112  RH  043%=      5-min Rain = 0
KST3 101651Z 19015KT 25/11 A3028 RMK A01 T02470112  RH  043%=      5-min Rain = 0
KST3 101652Z 19010KT 24/11 A3028 RMK A01 T02440109  RH  043%=      5-min Rain = 0
KST3 101653Z 20012KT 24/11 A3028 RMK A01 T02440113  RH  044%=      5-min Rain = 0
KST3 101654Z 21013KT 25/11 A3028 RMK A01 T02480113  RH  043%=      5-min Rain = 0
KST3 101655Z 20011KT 25/11 A3028 RMK A01 T02490113  RH  042%=      5-min Rain = 0
KST3 101656Z 19013KT 25/11 A3027 RMK A01 T02520114  RH  042%=      5-min Rain = 0
KST3 101657Z 20014KT 25/11 A3027 RMK A01 T02530112  RH  041%=      5-min Rain = 0
KST3 101658Z 20013KT 25/11 A3028 RMK A01 T02520113  RH  042%=      5-min Rain = 0
KST3 101659Z 21017KT 26/11 A3027 RMK A01 T02550111  RH  041%=      5-min Rain = 0
KST3 101700Z 18014KT 25/11 A3028 RMK A01 T02510109  RH  041%=      5-min Rain = 0
KST3 101701Z 20012KT 25/11 A3027 RMK A01 T02480110  RH  042%=      5-min Rain = 0
KST3 101702Z 20012KT 25/11 A3027 RMK A01 T02490112  RH  042%=      5-min Rain = 0
KST3 101703Z 18013KT 25/11 A3027 RMK A01 T02520111  RH  041%=      5-min Rain = 0
KST3 101704Z 19012KT 25/11 A3028 RMK A01 T02510111  RH  041%=      5-min Rain = 0
KST3 101705Z 20012KT 25/11 A3028 RMK A01 T02510111  RH  041%=      5-min Rain = 0
KST3 101706Z 20011KT 25/11 A3027 RMK A01 T02480111  RH  042%=      5-min Rain = 0
KST3 101707Z 19015KT 25/11 A3027 RMK A01 T02480112  RH  042%=      5-min Rain = 0
KST3 101708Z 19014KT 25/11 A3027 RMK A01 T02500111  RH  042%=      5-min Rain = 0
KST3 101709Z 20014KT 25/11 A3027 RMK A01 T02540112  RH  041%=      5-min Rain = 0
KST3 101710Z 20014KT 25/11 A3027 RMK A01 T02540111  RH  041%=      5-min Rain = 0
KST3 101711Z 20012KT 25/11 A3027 RMK A01 T02530110  RH  041%=      5-min Rain = 0
KST3 101712Z 21013KT 25/11 A3027 RMK A01 T02530111  RH  041%=      5-min Rain = 0
KST3 101713Z 20011KT 25/11 A3027 RMK A01 T02540112  RH  041%=      5-min Rain = 0
KST3 101714Z 19014KT 26/11 A3027 RMK A01 T02580111  RH  040%=      5-min Rain = 0
KST3 101715Z 19012KT 26/11 A3027 RMK A01 T02560110  RH  040%=      5-min Rain = 0
KST3 101716Z 18012KT 26/11 A3027 RMK A01 T02560111  RH  040%=      5-min Rain = 0
KST3 101717Z 18014KT 26/11 A3027 RMK A01 T02580111  RH  040%=      5-min Rain = 0
KST3 101718Z 19015KT 26/11 A3027 RMK A01 T02590110  RH  039%=      5-min Rain = 0
KST3 101719Z 18012KT 26/11 A3027 RMK A01 T02570112  RH  040%=      5-min Rain = 0
KST3 101720Z 18012G17KT 26/11 A3027 RMK A01 T02620114  RH  040%=      5-min Rain = 0
KST3 101721Z 19012KT 27/11 A3027 RMK A01 T02650111  RH  038%=      5-min Rain = 0
KST3 101722Z 19013KT 26/11 A3027 RMK A01 T02630112  RH  039%=      5-min Rain = 0
KST3 101723Z 18017KT 26/11 A3027 RMK A01 T02630111  RH  039%=      5-min Rain = 0
KST3 101724Z 18013KT 26/11 A3027 RMK A01 T02600110  RH  039%=      5-min Rain = 0
KST3 101725Z 18013KT 26/11 A3027 RMK A01 T02610110  RH  039%=      5-min Rain = 0
KST3 101726Z 17014KT 26/11 A3027 RMK A01 T02610111  RH  039%=      5-min Rain = 0
KST3 101727Z 18013KT 26/11 A3027 RMK A01 T02630111  RH  039%=      5-min Rain = 0
KST3 101728Z 17012KT 26/11 A3027 RMK A01 T02620110  RH  039%=      5-min Rain = 0
KST3 101729Z 17013KT 26/11 A3027 RMK A01 T02590110  RH  039%=      5-min Rain = 0
KST3 101730Z 18012KT 26/11 A3027 RMK A01 T02610111  RH  039%=      5-min Rain = 0
KST3 101731Z 19013KT 26/11 A3027 RMK A01 T02630112  RH  039%=      5-min Rain = 0
KST3 101732Z 18015KT 26/11 A3027 RMK A01 T02630111  RH  039%=      5-min Rain = 0
KST3 101733Z 19010KT 26/11 A3027 RMK A01 T02610110  RH  039%=      5-min Rain = 0
KST3 101734Z 19011KT 26/11 A3027 RMK A01 T02630114  RH  039%=      5-min Rain = 0
KST3 101735Z 19013KT 27/11 A3027 RMK A01 T02650114  RH  039%=      5-min Rain = 0
KST3 101736Z 21011KT 26/11 A3027 RMK A01 T02640113  RH  039%=      5-min Rain = 0
KST3 101737Z 20012G18KT 26/11 A3027 RMK A01 T02630113  RH  039%=      5-min Rain = 0
KST3 101738Z 19014KT 26/11 A3027 RMK A01 T02620114  RH  040%=      5-min Rain = 0
KST3 101739Z 20014KT 26/11 A3027 RMK A01 T02640113  RH  039%=      5-min Rain = 0
KST3 101740Z 21014KT 26/11 A3027 RMK A01 T02610110  RH  039%=      5-min Rain = 0
KST3 101741Z 20012KT 26/11 A3027 RMK A01 T02590111  RH  039%=      5-min Rain = 0
KST3 101742Z 19014KT 26/12 A3027 RMK A01 T02620115  RH  040%=      5-min Rain = 0
KST3 101743Z 20010KT 26/11 A3027 RMK A01 T02640114  RH  039%=      5-min Rain = 0
KST3 101744Z 20016KT 26/11 A3026 RMK A01 T02640114  RH  039%=      5-min Rain = 0
KST3 101745Z 20014KT 26/11 A3026 RMK A01 T02640112  RH  039%=      5-min Rain = 0
KST3 101746Z 21012KT 26/11 A3026 RMK A01 T02640113  RH  039%=      5-min Rain = 0
KST3 101747Z 20013G18KT 27/11 A3026 RMK A01 T02660113  RH  039%=      5-min Rain = 0
KST3 101748Z 20013G19KT 27/11 A3026 RMK A01 T02650113  RH  039%=      5-min Rain = 0
KST3 101749Z 20016KT 26/11 A3026 RMK A01 T02630112  RH  039%=      5-min Rain = 0
KST3 101750Z 20012KT 26/11 A3026 RMK A01 T02630112  RH  039%=      5-min Rain = 0
KST3 101751Z 20014KT 26/11 A3026 RMK A01 T02630109  RH  038%=      5-min Rain = 0
KST3 101752Z 21015KT 26/11 A3026 RMK A01 T02630107  RH  038%=      5-min Rain = 0
KST3 101753Z 20014KT 26/11 A3026 RMK A01 T02630110  RH  038%=      5-min Rain = 0
KST3 101754Z 20013KT 26/11 A3026 RMK A01 T02640113  RH  039%=      5-min Rain = 0
KST3 101755Z 20015KT 27/11 A3026 RMK A01 T02670112  RH  038%=      5-min Rain = 0
KST3 101756Z 21014KT 27/11 A3026 RMK A01 T02650111  RH  038%=      5-min Rain = 0
KST3 101757Z 20016KT 26/11 A3026 RMK A01 T02630111  RH  039%=      5-min Rain = 0
KST3 101758Z 20014KT 26/11 A3026 RMK A01 T02630111  RH  039%=      5-min Rain = 0
KST3 101759Z 20013KT 26/11 A3026 RMK A01 T02610110  RH  039%=      5-min Rain = 0
KST3 101800Z 20011KT 26/11 A3026 RMK A01 T02620111  RH  039%=      5-min Rain = 0
KST3 101801Z 20015KT 27/11 A3026 RMK A01 T02680114  RH  038%=      5-min Rain = 0
KST3 101802Z 20013KT 27/11 A3026 RMK A01 T02660111  RH  038%=      5-min Rain = 0
KST3 101803Z 20014KT 27/11 A3026 RMK A01 T02660112  RH  038%=      5-min Rain = 0
KST3 101804Z 20013KT 27/11 A3026 RMK A01 T02670113  RH  038%=      5-min Rain = 0
KST3 101805Z 21013KT 27/11 A3026 RMK A01 T02700114  RH  038%=      5-min Rain = 0
KST3 101806Z 21012KT 27/11 A3026 RMK A01 T02730112  RH  037%=      5-min Rain = 0
KST3 101807Z 20015KT 27/11 A3026 RMK A01 T02720112  RH  037%=      5-min Rain = 0
KST3 101808Z 20015KT 27/11 A3026 RMK A01 T02690114  RH  038%=      5-min Rain = 0
KST3 101809Z 19014KT 27/12 A3026 RMK A01 T02710115  RH  038%=      5-min Rain = 0
KST3 101810Z 19013KT 27/12 A3025 RMK A01 T02700115  RH  038%=      5-min Rain = 0
KST3 101811Z 19014KT 27/11 A3025 RMK A01 T02690113  RH  038%=      5-min Rain = 0
KST3 101812Z 18015KT 27/11 A3025 RMK A01 T02680112  RH  038%=      5-min Rain = 0
KST3 101813Z 19015KT 27/12 A3025 RMK A01 T02700115  RH  038%=      5-min Rain = 0
KST3 101814Z 19013KT 27/11 A3025 RMK A01 T02700114  RH  038%=      5-min Rain = 0
KST3 101815Z 21011KT 27/12 A3025 RMK A01 T02690115  RH  038%=      5-min Rain = 0
KST3 101816Z 20010KT 27/12 A3025 RMK A01 T02700116  RH  038%=      5-min Rain = 0
KST3 101817Z 19010KT 27/12 A3025 RMK A01 T02700115  RH  038%=      5-min Rain = 0
KST3 101818Z 18012KT 27/12 A3025 RMK A01 T02690117  RH  039%=      5-min Rain = 0
KST3 101819Z 19011KT 27/12 A3025 RMK A01 T02730115  RH  037%=      5-min Rain = 0
KST3 101820Z 20012G17KT 27/12 A3025 RMK A01 T02740115  RH  037%=      5-min Rain = 0
KST3 101821Z 18011KT 27/12 A3025 RMK A01 T02740115  RH  037%=      5-min Rain = 0
KST3 101822Z 17012KT 27/12 A3025 RMK A01 T02720115  RH  038%=      5-min Rain = 0
KST3 101823Z 18011KT 27/12 A3025 RMK A01 T02720115  RH  037%=      5-min Rain = 0
KST3 101824Z 19012KT 27/12 A3025 RMK A01 T02720115  RH  038%=      5-min Rain = 0
KST3 101825Z 20010KT 27/11 A3025 RMK A01 T02730114  RH  037%=      5-min Rain = 0
KST3 101826Z 19013KT 27/12 A3025 RMK A01 T02730116  RH  038%=      5-min Rain = 0
KST3 101827Z 18009KT 27/12 A3025 RMK A01 T02710115  RH  038%=      5-min Rain = 0
KST3 101828Z 19010KT 27/12 A3025 RMK A01 T02710116  RH  038%=      5-min Rain = 0
KST3 101829Z 19014KT 28/12 A3025 RMK A01 T02750117  RH  037%=      5-min Rain = 0
KST3 101830Z 20014KT 28/12 A3025 RMK A01 T02770115  RH  036%=      5-min Rain = 0
KST3 101831Z 19010KT 28/11 A3025 RMK A01 T02780113  RH  036%=      5-min Rain = 0
KST3 101832Z 20010KT 28/12 A3025 RMK A01 T02770116  RH  037%=      5-min Rain = 0
KST3 101833Z 20011G17KT 28/12 A3025 RMK A01 T02780115  RH  036%=      5-min Rain = 0
KST3 101834Z 20015KT 28/11 A3025 RMK A01 T02770113  RH  036%=      5-min Rain = 0
KST3 101835Z 21011KT 28/11 A3025 RMK A01 T02750112  RH  036%=      5-min Rain = 0
KST3 101836Z 20013KT 27/11 A3025 RMK A01 T02740112  RH  036%=      5-min Rain = 0
KST3 101837Z 20013KT 28/11 A3025 RMK A01 T02750111  RH  036%=      5-min Rain = 0
KST3 101838Z 20011KT 28/11 A3025 RMK A01 T02770112  RH  036%=      5-min Rain = 0
KST3 101839Z 20010KT 28/11 A3025 RMK A01 T02760112  RH  036%=      5-min Rain = 0
KST3 101840Z 19011KT 28/12 A3025 RMK A01 T02790117  RH  037%=      5-min Rain = 0
KST3 101841Z 19011KT 28/12 A3025 RMK A01 T02820115  RH  036%=      5-min Rain = 0
KST3 101842Z 21015KT 28/12 A3025 RMK A01 T02820115  RH  035%=      5-min Rain = 0
KST3 101843Z 21016KT 28/11 A3024 RMK A01 T02800111  RH  035%=      5-min Rain = 0
KST3 101844Z 21016KT 28/11 A3024 RMK A01 T02790110  RH  035%=      5-min Rain = 0
KST3 101845Z 21015KT 28/11 A3024 RMK A01 T02800110  RH  035%=      5-min Rain = 0
KST3 101846Z 21015KT 28/11 A3024 RMK A01 T02800111  RH  035%=      5-min Rain = 0
KST3 101847Z 21013KT 28/11 A3024 RMK A01 T02810113  RH  035%=      5-min Rain = 0
KST3 101848Z 20012KT 28/11 A3024 RMK A01 T02790112  RH  035%=      5-min Rain = 0
KST3 101849Z 21014KT 28/11 A3024 RMK A01 T02790114  RH  036%=      5-min Rain = 0
KST3 101850Z 20013KT 28/11 A3024 RMK A01 T02810113  RH  035%=      5-min Rain = 0
KST3 101851Z 21014KT 28/11 A3024 RMK A01 T02830109  RH  034%=      5-min Rain = 0
KST3 101852Z 21013KT 28/11 A3024 RMK A01 T02820109  RH  034%=      5-min Rain = 0
KST3 101853Z 19013KT 28/11 A3024 RMK A01 T02810111  RH  035%=      5-min Rain = 0
KST3 101854Z 20012KT 28/11 A3024 RMK A01 T02800111  RH  035%=      5-min Rain = 0
KST3 101855Z 19013KT 28/11 A3024 RMK A01 T02790111  RH  035%=      5-min Rain = 0
KST3 101856Z 18012KT 28/11 A3024 RMK A01 T02790111  RH  035%=      5-min Rain = 0
KST3 101857Z 20011KT 28/11 A3024 RMK A01 T02810111  RH  035%=      5-min Rain = 0
KST3 101858Z 20015KT 28/11 A3024 RMK A01 T02800112  RH  035%=      5-min Rain = 0
KST3 101859Z 19012KT 28/11 A3024 RMK A01 T02820113  RH  035%=      5-min Rain = 0
KST3 101900Z 18013KT 28/11 A3024 RMK A01 T02820114  RH  035%=      5-min Rain = 0
KST3 101901Z 19009KT 28/11 A3024 RMK A01 T02820113  RH  035%=      5-min Rain = 0
KST3 101902Z 21013KT 28/11 A3024 RMK A01 T02800114  RH  036%=      5-min Rain = 0
KST3 101903Z 22014KT 28/11 A3024 RMK A01 T02800113  RH  035%=      5-min Rain = 0
KST3 101904Z 21014KT 28/11 A3023 RMK A01 T02800111  RH  035%=      5-min Rain = 0
KST3 101905Z 19015KT 28/11 A3024 RMK A01 T02810113  RH  035%=      5-min Rain = 0
KST3 101906Z 18015KT 28/11 A3024 RMK A01 T02830111  RH  034%=      5-min Rain = 0
KST3 101907Z 19014KT 28/11 A3024 RMK A01 T02840110  RH  034%=      5-min Rain = 0
KST3 101908Z 20010KT 28/11 A3024 RMK A01 T02840111  RH  034%=      5-min Rain = 0
KST3 101909Z 20012KT 29/11 A3024 RMK A01 T02850112  RH  034%=      5-min Rain = 0
KST3 101910Z 21012KT 29/11 A3024 RMK A01 T02870113  RH  034%=      5-min Rain = 0
KST3 101911Z 20009KT 29/11 A3024 RMK A01 T02850111  RH  034%=      5-min Rain = 0
KST3 101912Z 21014KT 28/11 A3023 RMK A01 T02820111  RH  035%=      5-min Rain = 0
KST3 101913Z 20013KT 28/11 A3023 RMK A01 T02840113  RH  034%=      5-min Rain = 0
KST3 101914Z 20012KT 29/11 A3023 RMK A01 T02850112  RH  034%=      5-min Rain = 0
KST3 101915Z 21014KT 29/11 A3023 RMK A01 T02850111  RH  034%=      5-min Rain = 0
KST3 101916Z 21011KT 28/11 A3023 RMK A01 T02830109  RH  034%=      5-min Rain = 0
KST3 101917Z 21011KT 28/11 A3023 RMK A01 T02810109  RH  034%=      5-min Rain = 0
KST3 101918Z 18014KT 28/11 A3023 RMK A01 T02800110  RH  035%=      5-min Rain = 0
KST3 101919Z 20012KT 28/11 A3023 RMK A01 T02830111  RH  034%=      5-min Rain = 0
KST3 101920Z 20009KT 28/11 A3023 RMK A01 T02840110  RH  034%=      5-min Rain = 0
KST3 101921Z 18012KT 29/11 A3023 RMK A01 T02860112  RH  034%=      5-min Rain = 0
KST3 101922Z 18012KT 29/11 A3023 RMK A01 T02870111  RH  034%=      5-min Rain = 0
KST3 101923Z 18010KT 29/11 A3023 RMK A01 T02860110  RH  034%=      5-min Rain = 0
KST3 101924Z 18008KT 29/11 A3023 RMK A01 T02860110  RH  033%=      5-min Rain = 0
KST3 101925Z 18007KT 29/11 A3023 RMK A01 T02850108  RH  033%=      5-min Rain = 0
KST3 101926Z 19007KT 28/11 A3023 RMK A01 T02840112  RH  034%=      5-min Rain = 0
KST3 101927Z 22012KT 29/11 A3023 RMK A01 T02860113  RH  034%=      5-min Rain = 0
KST3 101928Z 23010KT 29/11 A3023 RMK A01 T02900111  RH  033%=      5-min Rain = 0
KST3 101929Z 21010KT 29/11 A3023 RMK A01 T02910111  RH  033%=      5-min Rain = 0
KST3 101930Z 21014KT 29/11 A3023 RMK A01 T02930113  RH  033%=      5-min Rain = 0
KST3 101931Z 22011G18KT 29/11 A3023 RMK A01 T02920110  RH  033%=      5-min Rain = 0
KST3 101932Z 17014KT 29/11 A3023 RMK A01 T02900113  RH  033%=      5-min Rain = 0
KST3 101933Z 18012KT 29/12 A3023 RMK A01 T02910115  RH  034%=      5-min Rain = 0
KST3 101934Z 20012KT 29/11 A3023 RMK A01 T02930113  RH  033%=      5-min Rain = 0
KST3 101935Z 21011KT 29/11 A3023 RMK A01 T02900111  RH  033%=      5-min Rain = 0
KST3 101936Z 20009KT 29/11 A3023 RMK A01 T02880109  RH  033%=      5-min Rain = 0
KST3 101937Z 20012KT 29/11 A3023 RMK A01 T02860111  RH  034%=      5-min Rain = 0
KST3 101938Z 18009KT 28/11 A3023 RMK A01 T02840111  RH  034%=      5-min Rain = 0
KST3 101939Z 20013KT 28/11 A3022 RMK A01 T02840112  RH  034%=      5-min Rain = 0
KST3 101940Z 21012KT 29/11 A3022 RMK A01 T02890114  RH  034%=      5-min Rain = 0
KST3 101941Z 20012KT 30/12 A3022 RMK A01 T02950115  RH  033%=      5-min Rain = 0
KST3 101942Z 18012KT 30/11 A3022 RMK A01 T02960113  RH  032%=      5-min Rain = 0
KST3 101943Z 17013KT 30/11 A3022 RMK A01 T02970112  RH  032%=      5-min Rain = 0
KST3 101944Z 16011KT 29/11 A3022 RMK A01 T02930107  RH  032%=      5-min Rain = 0
KST3 101945Z 18008KT 29/11 A3022 RMK A01 T02900110  RH  033%=      5-min Rain = 0
KST3 101946Z 16010KT 29/11 A3022 RMK A01 T02910114  RH  033%=      5-min Rain = 0
KST3 101947Z 18013KT 29/11 A3022 RMK A01 T02920112  RH  033%=      5-min Rain = 0
KST3 101948Z 20012KT 29/11 A3022 RMK A01 T02910112  RH  033%=      5-min Rain = 0
KST3 101949Z 21012KT 29/11 A3022 RMK A01 T02930112  RH  033%=      5-min Rain = 0
KST3 101950Z 21009KT 29/11 A3022 RMK A01 T02910113  RH  033%=      5-min Rain = 0
KST3 101951Z 21006KT 29/11 A3022 RMK A01 T02890112  RH  033%=      5-min Rain = 0
KST3 101952Z 19008G13KT 29/11 A3022 RMK A01 T02880114  RH  034%=      5-min Rain = 0
KST3 101953Z 21011KT 29/11 A3022 RMK A01 T02910114  RH  033%=      5-min Rain = 0
KST3 101954Z 22010KT 29/11 A3022 RMK A01 T02900112  RH  033%=      5-min Rain = 0
KST3 101955Z 21011KT 29/11 A3022 RMK A01 T02890112  RH  033%=      5-min Rain = 0
KST3 101956Z 21011KT 29/11 A3022 RMK A01 T02910113  RH  033%=      5-min Rain = 0
KST3 101957Z 18014KT 29/11 A3022 RMK A01 T02920112  RH  033%=      5-min Rain = 0
KST3 101958Z 19013KT 29/11 A3022 RMK A01 T02930113  RH  033%=      5-min Rain = 0
KST3 101959Z 18011KT 29/11 A3022 RMK A01 T02920112  RH  033%=      5-min Rain = 0
KST3 102000Z 18007KT 29/11 A3022 RMK A01 T02910111  RH  033%=      5-min Rain = 0
KST3 102001Z 19008G13KT 29/11 A3022 RMK A01 T02910112  RH  033%=      5-min Rain = 0
KST3 102002Z 19014KT 29/12 A3022 RMK A01 T02940115  RH  033%=      5-min Rain = 0
KST3 102003Z 19014KT 30/11 A3022 RMK A01 T02970113  RH  032%=      5-min Rain = 0
KST3 102004Z 19011KT 30/11 A3022 RMK A01 T02950112  RH  032%=      5-min Rain = 0
KST3 102005Z 18012KT 29/11 A3022 RMK A01 T02930111  RH  032%=      5-min Rain = 0
KST3 102006Z 16011KT 29/11 A3022 RMK A01 T02940111  RH  032%=      5-min Rain = 0
KST3 102007Z 16012KT 29/11 A3022 RMK A01 T02930110  RH  032%=      5-min Rain = 0
KST3 102008Z 15012KT 29/11 A3022 RMK A01 T02920111  RH  033%=      5-min Rain = 0
KST3 102009Z 18009KT 29/11 A3022 RMK A01 T02920111  RH  033%=      5-min Rain = 0
KST3 102010Z 18008KT 29/11 A3022 RMK A01 T02910111  RH  033%=      5-min Rain = 0
KST3 102011Z 17010KT 29/11 A3022 RMK A01 T02910114  RH  033%=      5-min Rain = 0
KST3 102012Z 18012KT 30/12 A3022 RMK A01 T02970115  RH  032%=      5-min Rain = 0
KST3 102013Z 19012KT 30/11 A3022 RMK A01 T02970112  RH  032%=      5-min Rain = 0
KST3 102014Z 18012KT 30/11 A3022 RMK A01 T02950113  RH  032%=      5-min Rain = 0
KST3 102015Z 17012KT 30/11 A3021 RMK A01 T02950112  RH  032%=      5-min Rain = 0
KST3 102016Z 16012KT 30/11 A3021 RMK A01 T02960112  RH  032%=      5-min Rain = 0
KST3 102017Z 16012KT 30/11 A3021 RMK A01 T02960113  RH  032%=      5-min Rain = 0
KST3 102018Z 15010KT 30/11 A3021 RMK A01 T02950114  RH  033%=      5-min Rain = 0
KST3 102019Z 16010KT 29/11 A3021 RMK A01 T02930113  RH  033%=      5-min Rain = 0
KST3 102020Z 16014KT 29/11 A3021 RMK A01 T02930112  RH  033%=      5-min Rain = 0
KST3 102021Z 17012KT 29/11 A3021 RMK A01 T02920109  RH  032%=      5-min Rain = 0
KST3 102022Z 18010KT 29/11 A3021 RMK A01 T02900108  RH  032%=      5-min Rain = 0
KST3 102023Z 16011KT 29/11 A3021 RMK A01 T02910110  RH  032%=      5-min Rain = 0
KST3 102024Z 17011KT 29/11 A3021 RMK A01 T02930110  RH  032%=      5-min Rain = 0
KST3 102025Z 17008KT 29/11 A3021 RMK A01 T02930110  RH  032%=      5-min Rain = 0
KST3 102026Z 16007KT 29/11 A3021 RMK A01 T02900108  RH  032%=      5-min Rain = 0
KST3 102027Z 17006KT 29/11 A3021 RMK A01 T02880109  RH  033%=      5-min Rain = 0
KST3 102028Z 18011G16KT 29/11 A3021 RMK A01 T02880110  RH  033%=      5-min Rain = 0
KST3 102029Z 18013KT 29/11 A3021 RMK A01 T02910112  RH  033%=      5-min Rain = 0
KST3 102030Z 17011KT 29/11 A3021 RMK A01 T02910111  RH  033%=      5-min Rain = 0
KST3 102031Z 18010KT 29/11 A3021 RMK A01 T02920111  RH  033%=      5-min Rain = 0
KST3 102032Z 19013KT 29/11 A3021 RMK A01 T02930112  RH  033%=      5-min Rain = 0
KST3 102033Z 17011KT 29/11 A3021 RMK A01 T02930110  RH  032%=      5-min Rain = 0
KST3 102034Z 17007KT 29/11 A3021 RMK A01 T02920110  RH  032%=      5-min Rain = 0
KST3 102035Z 16008KT 29/11 A3021 RMK A01 T02920111  RH  033%=      5-min Rain = 0
KST3 102036Z 16013KT 29/11 A3021 RMK A01 T02940114  RH  033%=      5-min Rain = 0
KST3 102037Z 16011KT 30/11 A3021 RMK A01 T02960112  RH  032%=      5-min Rain = 0
KST3 102038Z 15009KT 29/11 A3021 RMK A01 T02940112  RH  032%=      5-min Rain = 0
KST3 102039Z 16010KT 29/11 A3021 RMK A01 T02910110  RH  032%=      5-min Rain = 0
KST3 102040Z 17008KT 29/11 A302 RMK A01 T02890110  RH  033%=      5-min Rain = 0
KST3 102041Z 18007KT 29/11 A302 RMK A01 T02880112  RH  034%=      5-min Rain = 0
KST3 102042Z 17009G14KT 29/11 A302 RMK A01 T02890113  RH  034%=      5-min Rain = 0
KST3 102043Z 18013KT 29/12 A302 RMK A01 T02930115  RH  033%=      5-min Rain = 0
KST3 102044Z 19013KT 30/12 A302 RMK A01 T02980115  RH  032%=      5-min Rain = 0
KST3 102045Z 21009KT 30/11 A302 RMK A01 T02980114  RH  032%=      5-min Rain = 0
KST3 102046Z 21009KT 30/11 A302 RMK A01 T02970114  RH  032%=      5-min Rain = 0
KST3 102047Z 22008KT 30/11 A3021 RMK A01 T02970114  RH  032%=      5-min Rain = 0
KST3 102048Z 19010KT 30/11 A302 RMK A01 T02980113  RH  032%=      5-min Rain = 0
KST3 102049Z 20009KT 30/11 A302 RMK A01 T02970112  RH  032%=      5-min Rain = 0
KST3 102050Z 17013KT 30/11 A302 RMK A01 T02980112  RH  032%=      5-min Rain = 0
KST3 102051Z 17014KT 30/11 A302 RMK A01 T02980111  RH  031%=      5-min Rain = 0
KST3 102052Z 17013KT 30/11 A302 RMK A01 T02970110  RH  031%=      5-min Rain = 0
KST3 102053Z 19011KT 30/11 A302 RMK A01 T02970110  RH  032%=      5-min Rain = 0
KST3 102054Z 18007KT 30/11 A302 RMK A01 T02960112  RH  032%=      5-min Rain = 0
KST3 102055Z 16007KT 30/11 A302 RMK A01 T02960113  RH  032%=      5-min Rain = 0
KST3 102056Z 18008KT 30/11 A302 RMK A01 T02970113  RH  032%=      5-min Rain = 0
KST3 102057Z 18008KT 30/11 A302 RMK A01 T02970112  RH  032%=      5-min Rain = 0
KST3 102058Z 19011KT 30/11 A302 RMK A01 T02980111  RH  031%=      5-min Rain = 0
KST3 102059Z 20011KT 30/11 A302 RMK A01 T02960108  RH  031%=      5-min Rain = 0
KST3 102100Z 22011KT 29/11 A302 RMK A01 T02940108  RH  032%=      5-min Rain = 0
KST3 102101Z 23008KT 30/11 A302 RMK A01 T02950110  RH  032%=      5-min Rain = 0
KST3 102102Z 20008KT 30/11 A302 RMK A01 T02970111  RH  032%=      5-min Rain = 0
KST3 102103Z 19012KT 30/11 A302 RMK A01 T02980112  RH  032%=      5-min Rain = 0
KST3 102104Z 21009KT 30/11 A302 RMK A01 T02960110  RH  032%=      5-min Rain = 0
KST3 102105Z 18009KT 29/11 A302 RMK A01 T02940111  RH  032%=      5-min Rain = 0
KST3 102106Z 16009KT 30/11 A302 RMK A01 T02950112  RH  032%=      5-min Rain = 0
KST3 102107Z 16012G17KT 30/11 A302 RMK A01 T02960113  RH  032%=      5-min Rain = 0
KST3 102108Z 16012KT 30/11 A302 RMK A01 T02970112  RH  032%=      5-min Rain = 0
KST3 102109Z 16013KT 30/11 A302 RMK A01 T02980112  RH  032%=      5-min Rain = 0
KST3 102110Z 16011KT 30/11 A302 RMK A01 T02970110  RH  031%=      5-min Rain = 0
KST3 102111Z 15013KT 30/11 A302 RMK A01 T02960111  RH  032%=      5-min Rain = 0
KST3 102112Z 15011KT 30/11 A302 RMK A01 T02960110  RH  032%=      5-min Rain = 0
KST3 102113Z 15010KT 29/11 A302 RMK A01 T02940109  RH  032%=      5-min Rain = 0
KST3 102114Z 17013G18KT 29/11 A3019 RMK A01 T02940110  RH  032%=      5-min Rain = 0
KST3 102115Z 16015KT 30/11 A3019 RMK A01 T02950109  RH  032%=      5-min Rain = 0
KST3 102116Z 18014KT 30/11 A302 RMK A01 T02950109  RH  032%=      5-min Rain = 0
KST3 102117Z 18012KT 30/11 A302 RMK A01 T02960109  RH  031%=      5-min Rain = 0
KST3 102118Z 18010KT 30/11 A302 RMK A01 T02950110  RH  032%=      5-min Rain = 0
KST3 102119Z 17012KT 30/11 A302 RMK A01 T02950109  RH  031%=      5-min Rain = 0
KST3 102120Z 16010KT 30/11 A302 RMK A01 T02960109  RH  031%=      5-min Rain = 0
KST3 102121Z 17010KT 30/11 A302 RMK A01 T02960110  RH  032%=      5-min Rain = 0
KST3 102122Z 16007KT 30/11 A3019 RMK A01 T02950110  RH  032%=      5-min Rain = 0
KST3 102123Z 16012KT 29/11 A3019 RMK A01 T02940111  RH  032%=      5-min Rain = 0
KST3 102124Z 18013KT 30/11 A3019 RMK A01 T02970109  RH  031%=      5-min Rain = 0
KST3 102125Z 18010KT 30/11 A3019 RMK A01 T02970108  RH  031%=      5-min Rain = 0
KST3 102126Z 17011KT 30/11 A3019 RMK A01 T02970110  RH  031%=      5-min Rain = 0
KST3 102127Z 15013KT 30/11 A3019 RMK A01 T02980110  RH  031%=      5-min Rain = 0
KST3 102128Z 15010KT 30/11 A3019 RMK A01 T02980108  RH  031%=      5-min Rain = 0
KST3 102129Z 15008KT 30/11 A3019 RMK A01 T02950109  RH  032%=      5-min Rain = 0
KST3 102130Z 17009KT 29/11 A3019 RMK A01 T02940110  RH  032%=      5-min Rain = 0
KST3 102131Z 15011KT 30/11 A3019 RMK A01 T02960111  RH  032%=      5-min Rain = 0
KST3 102132Z 16013KT 30/11 A3019 RMK A01 T02950110  RH  032%=      5-min Rain = 0
KST3 102133Z 19013KT 30/11 A3019 RMK A01 T02960110  RH  032%=      5-min Rain = 0
KST3 102134Z 20010KT 30/11 A302 RMK A01 T02970110  RH  032%=      5-min Rain = 0
KST3 102135Z 19011KT 30/11 A3019 RMK A01 T02970110  RH  032%=      5-min Rain = 0
KST3 102136Z 18011KT 30/11 A3019 RMK A01 T02950110  RH  032%=      5-min Rain = 0
KST3 102137Z 18009KT 30/11 A3019 RMK A01 T02950111  RH  032%=      5-min Rain = 0
KST3 102138Z 18012KT 30/11 A3019 RMK A01 T02960111  RH  032%=      5-min Rain = 0
KST3 102139Z 18010KT 30/11 A3019 RMK A01 T02960110  RH  032%=      5-min Rain = 0
KST3 102140Z 20008KT 30/11 A3019 RMK A01 T02950110  RH  032%=      5-min Rain = 0
KST3 102141Z 20008KT 30/11 A3019 RMK A01 T02950110  RH  032%=      5-min Rain = 0
KST3 102142Z 18013KT 30/11 A3019 RMK A01 T02950111  RH  032%=      5-min Rain = 0
KST3 102143Z 17011KT 30/11 A3019 RMK A01 T02980111  RH  031%=      5-min Rain = 0
KST3 102144Z 17008KT 30/11 A3019 RMK A01 T02970109  RH  031%=      5-min Rain = 0
KST3 102145Z 18006KT 30/11 A3019 RMK A01 T02950110  RH  032%=      5-min Rain = 0
KST3 102146Z 16007KT 30/11 A3019 RMK A01 T02960112  RH  032%=      5-min Rain = 0
KST3 102147Z 16009KT 30/11 A3019 RMK A01 T03000111  RH  031%=      5-min Rain = 0
KST3 102148Z 16012KT 30/11 A3019 RMK A01 T02990110  RH  031%=      5-min Rain = 0
KST3 102149Z 16011KT 30/11 A3019 RMK A01 T02960110  RH  032%=      5-min Rain = 0
KST3 102150Z 17009KT 30/11 A3019 RMK A01 T02950110  RH  032%=      5-min Rain = 0
KST3 102151Z 17008KT 30/11 A3019 RMK A01 T02950110  RH  032%=      5-min Rain = 0
KST3 102152Z 20007KT 30/11 A3019 RMK A01 T02950109  RH  032%=      5-min Rain = 0
KST3 102153Z 18009KT 30/11 A3019 RMK A01 T02950109  RH  032%=      5-min Rain = 0
KST3 102154Z 19010KT 30/11 A3019 RMK A01 T02950109  RH  031%=      5-min Rain = 0
KST3 102155Z 20009KT 30/11 A3019 RMK A01 T02960109  RH  031%=      5-min Rain = 0
KST3 102156Z 19009KT 30/11 A3019 RMK A01 T02960108  RH  031%=      5-min Rain = 0
KST3 102157Z 18010KT 30/11 A3019 RMK A01 T02960109  RH  032%=      5-min Rain = 0
KST3 102158Z 18008KT 30/11 A3019 RMK A01 T02960109  RH  031%=      5-min Rain = 0
KST3 102159Z 18012KT 30/11 A3019 RMK A01 T02960110  RH  032%=      5-min Rain = 0
KST3 102200Z 18012KT 30/11 A3019 RMK A01 T02960110  RH  032%=      5-min Rain = 0
KST3 102201Z 19010KT 30/11 A3019 RMK A01 T02960109  RH  031%=      5-min Rain = 0
KST3 102202Z 18011KT 30/11 A3019 RMK A01 T02950110  RH  032%=      5-min Rain = 0
KST3 102203Z 18010KT 30/11 A3019 RMK A01 T02970109  RH  031%=      5-min Rain = 0
KST3 102204Z 18012KT 30/11 A3019 RMK A01 T02970108  RH  031%=      5-min Rain = 0
KST3 102205Z 17013KT 30/11 A3019 RMK A01 T02970107  RH  031%=      5-min Rain = 0
KST3 102206Z 17012KT 30/11 A3019 RMK A01 T02960107  RH  031%=      5-min Rain = 0
KST3 102207Z 17012KT 30/11 A3019 RMK A01 T02960108  RH  031%=      5-min Rain = 0
KST3 102208Z 17011KT 29/11 A3019 RMK A01 T02940107  RH  031%=      5-min Rain = 0
KST3 102209Z 16012KT 29/11 A3019 RMK A01 T02940109  RH  032%=      5-min Rain = 0
KST3 102210Z 16014KT 29/11 A3019 RMK A01 T02930109  RH  032%=      5-min Rain = 0
KST3 102211Z 17012KT 30/11 A3019 RMK A01 T02950110  RH  032%=      5-min Rain = 0
KST3 102212Z 18010KT 30/11 A3019 RMK A01 T02970110  RH  031%=      5-min Rain = 0
KST3 102213Z 18010KT 30/11 A3019 RMK A01 T02990110  RH  031%=      5-min Rain = 0
KST3 102214Z 18009KT 30/11 A3019 RMK A01 T02960109  RH  031%=      5-min Rain = 0
KST3 102215Z 17010KT 30/11 A3019 RMK A01 T02950110  RH  032%=      5-min Rain = 0
KST3 102216Z 18009KT 30/11 A3019 RMK A01 T02950110  RH  032%=      5-min Rain = 0
KST3 102217Z 19007KT 30/11 A3019 RMK A01 T02950110  RH  032%=      5-min Rain = 0
KST3 102218Z 19009G15KT 30/11 A3019 RMK A01 T02950111  RH  032%=      5-min Rain = 0
KST3 102219Z 17014KT 30/11 A3019 RMK A01 T02960112  RH  032%=      5-min Rain = 0
KST3 102220Z 18014KT 30/11 A3019 RMK A01 T02980111  RH  032%=      5-min Rain = 0
KST3 102221Z 18013KT 30/11 A3019 RMK A01 T02980109  RH  031%=      5-min Rain = 0
KST3 102222Z 18013KT 30/11 A3019 RMK A01 T02950108  RH  031%=      5-min Rain = 0
KST3 102223Z 18012KT 29/11 A3019 RMK A01 T02940108  RH  032%=      5-min Rain = 0
KST3 102224Z 20009KT 29/11 A3019 RMK A01 T02930108  RH  032%=      5-min Rain = 0
KST3 102225Z 20009KT 29/11 A3019 RMK A01 T02920107  RH  032%=      5-min Rain = 0
KST3 102226Z 19009G14KT 29/11 A3019 RMK A01 T02920108  RH  032%=      5-min Rain = 0
KST3 102227Z 19010KT 29/11 A3019 RMK A01 T02920108  RH  032%=      5-min Rain = 0
KST3 102228Z 19008KT 29/11 A3019 RMK A01 T02930109  RH  032%=      5-min Rain = 0
KST3 102229Z 19007KT 29/11 A3019 RMK A01 T02940108  RH  032%=      5-min Rain = 0
KST3 102230Z 18009KT 29/11 A3019 RMK A01 T02940109  RH  032%=      5-min Rain = 0
KST3 102231Z 19010KT 30/11 A3019 RMK A01 T02950109  RH  032%=      5-min Rain = 0
KST3 102232Z 18008KT 30/11 A3019 RMK A01 T02970110  RH  031%=      5-min Rain = 0
KST3 102233Z 18011KT 30/11 A3019 RMK A01 T02980109  RH  031%=      5-min Rain = 0
KST3 102234Z 19011KT 30/11 A3019 RMK A01 T02960108  RH  031%=      5-min Rain = 0
KST3 102235Z 18013KT 30/11 A3019 RMK A01 T02950108  RH  031%=      5-min Rain = 0
KST3 102236Z 17011G16KT 29/11 A3019 RMK A01 T02940108  RH  032%=      5-min Rain = 0
KST3 102237Z 16012KT 29/11 A3019 RMK A01 T02930108  RH  032%=      5-min Rain = 0
KST3 102238Z 17012KT 29/11 A3019 RMK A01 T02910108  RH  032%=      5-min Rain = 0
KST3 102239Z 18013KT 29/11 A3019 RMK A01 T02910108  RH  032%=      5-min Rain = 0
KST3 102240Z 18008KT 29/11 A3019 RMK A01 T02910108  RH  032%=      5-min Rain = 0
KST3 102241Z 17009KT 29/11 A3019 RMK A01 T02900110  RH  033%=      5-min Rain = 0
KST3 102242Z 18008KT 29/11 A3019 RMK A01 T02910109  RH  032%=      5-min Rain = 0
KST3 102243Z 17009KT 29/11 A3019 RMK A01 T02910109  RH  032%=      5-min Rain = 0
KST3 102244Z 17010KT 29/11 A3019 RMK A01 T02920108  RH  032%=      5-min Rain = 0
KST3 102245Z 17009KT 29/11 A3019 RMK A01 T02920109  RH  032%=      5-min Rain = 0
KST3 102246Z 15010KT 29/11 A3019 RMK A01 T02930110  RH  032%=      5-min Rain = 0
KST3 102247Z 18012KT 29/11 A3019 RMK A01 T02930110  RH  032%=      5-min Rain = 0
KST3 102248Z 17011KT 29/11 A3019 RMK A01 T02930109  RH  032%=      5-min Rain = 0
KST3 102249Z 18011KT 29/11 A3019 RMK A01 T02920109  RH  032%=      5-min Rain = 0
KST3 102250Z 18010KT 29/11 A3019 RMK A01 T02920109  RH  032%=      5-min Rain = 0
KST3 102251Z 17010KT 29/11 A3019 RMK A01 T02920109  RH  032%=      5-min Rain = 0
KST3 102252Z 16013KT 29/11 A3019 RMK A01 T02920110  RH  032%=      5-min Rain = 0
KST3 102253Z 17013KT 29/11 A3019 RMK A01 T02920109  RH  032%=      5-min Rain = 0
KST3 102254Z 17010KT 29/11 A3019 RMK A01 T02900109  RH  032%=      5-min Rain = 0
KST3 102255Z 15012KT 29/11 A3019 RMK A01 T02890109  RH  033%=      5-min Rain = 0
KST3 102256Z 15010KT 29/11 A3019 RMK A01 T02890109  RH  033%=      5-min Rain = 0
KST3 102257Z 15007KT 29/11 A3019 RMK A01 T02880109  RH  033%=      5-min Rain = 0
KST3 102258Z 15011KT 29/11 A3019 RMK A01 T02880109  RH  033%=      5-min Rain = 0
KST3 102259Z 14010KT 29/11 A3019 RMK A01 T02890109  RH  033%=      5-min Rain = 0
KST3 102300Z 15013KT 29/11 A3019 RMK A01 T02890108  RH  032%=      5-min Rain = 0
KST3 102301Z 16012KT 29/11 A3019 RMK A01 T02890107  RH  032%=      5-min Rain = 0
KST3 102302Z 16010KT 29/11 A3019 RMK A01 T02890108  RH  033%=      5-min Rain = 0
KST3 102303Z 16009KT 29/11 A3019 RMK A01 T02890107  RH  032%=      5-min Rain = 0
KST3 102304Z 18010KT 29/11 A3019 RMK A01 T02890108  RH  033%=      5-min Rain = 0
KST3 102305Z 17012KT 29/11 A3019 RMK A01 T02890108  RH  032%=      5-min Rain = 0
KST3 102306Z 17011KT 29/11 A3019 RMK A01 T02890108  RH  033%=      5-min Rain = 0
KST3 102307Z 18010KT 29/11 A3019 RMK A01 T02880108  RH  033%=      5-min Rain = 0
KST3 102308Z 17010KT 29/11 A3019 RMK A01 T02890108  RH  033%=      5-min Rain = 0
KST3 102309Z 17009KT 29/11 A3019 RMK A01 T02890109  RH  033%=      5-min Rain = 0
KST3 102310Z 19011KT 29/11 A3019 RMK A01 T02890108  RH  032%=      5-min Rain = 0
KST3 102311Z 19009KT 29/11 A3019 RMK A01 T02880106  RH  032%=      5-min Rain = 0
KST3 102312Z 18009KT 29/11 A3019 RMK A01 T02870107  RH  033%=      5-min Rain = 0
KST3 102313Z 17010KT 29/11 A3019 RMK A01 T02880108  RH  033%=      5-min Rain = 0
KST3 102314Z 17009KT 29/11 A3019 RMK A01 T02880108  RH  033%=      5-min Rain = 0
KST3 102315Z 18012KT 29/11 A3019 RMK A01 T02890108  RH  033%=      5-min Rain = 0
KST3 102316Z 18011G16KT 29/11 A3019 RMK A01 T02890109  RH  033%=      5-min Rain = 0
KST3 102317Z 17012KT 29/11 A3019 RMK A01 T02900108  RH  032%=      5-min Rain = 0
KST3 102318Z 17011KT 29/11 A3019 RMK A01 T02890107  RH  032%=      5-min Rain = 0
KST3 102319Z 17010KT 29/11 A3019 RMK A01 T02880108  RH  033%=      5-min Rain = 0
KST3 102320Z 16011KT 29/11 A3019 RMK A01 T02880107  RH  033%=      5-min Rain = 0
KST3 102321Z 16011KT 29/11 A3019 RMK A01 T02870107  RH  033%=      5-min Rain = 0
KST3 102322Z 15009KT 29/11 A3019 RMK A01 T02860107  RH  033%=      5-min Rain = 0
KST3 102323Z 15008KT 29/11 A3019 RMK A01 T02860107  RH  033%=      5-min Rain = 0
KST3 102324Z 15011KT 29/11 A3019 RMK A01 T02860107  RH  033%=      5-min Rain = 0
KST3 102325Z 15010KT 29/11 A3019 RMK A01 T02870108  RH  033%=      5-min Rain = 0
KST3 102326Z 16010KT 29/11 A3019 RMK A01 T02870108  RH  033%=      5-min Rain = 0
KST3 102327Z 18011KT 29/11 A3019 RMK A01 T02870108  RH  033%=      5-min Rain = 0
KST3 102328Z 18011KT 29/11 A3019 RMK A01 T02870108  RH  033%=      5-min Rain = 0
KST3 102329Z 18012KT 29/11 A3019 RMK A01 T02880107  RH  033%=      5-min Rain = 0
KST3 102330Z 18010KT 29/11 A3019 RMK A01 T02870107  RH  033%=      5-min Rain = 0
KST3 102331Z 18009KT 29/11 A3019 RMK A01 T02860107  RH  033%=      5-min Rain = 0
KST3 102332Z 18012KT 29/11 A3019 RMK A01 T02870107  RH  033%=      5-min Rain = 0
KST3 102333Z 19012KT 29/11 A3019 RMK A01 T02860106  RH  033%=      5-min Rain = 0
KST3 102334Z 19011KT 29/11 A3019 RMK A01 T02850106  RH  033%=      5-min Rain = 0
KST3 102335Z 19010KT 29/11 A3019 RMK A01 T02850107  RH  033%=      5-min Rain = 0
KST3 102336Z 18010KT 29/11 A3019 RMK A01 T02850106  RH  033%=      5-min Rain = 0
KST3 102337Z 18009KT 29/11 A3019 RMK A01 T02850106  RH  033%=      5-min Rain = 0
KST3 102338Z 18009KT 29/11 A3019 RMK A01 T02860107  RH  033%=      5-min Rain = 0
KST3 102339Z 18011KT 29/11 A3019 RMK A01 T02860106  RH  033%=      5-min Rain = 0
KST3 102340Z 18011KT 29/11 A3019 RMK A01 T02850105  RH  033%=      5-min Rain = 0
KST3 102341Z 19008KT 28/11 A3019 RMK A01 T02840105  RH  033%=      5-min Rain = 0
KST3 102342Z 18009KT 28/11 A3019 RMK A01 T02830105  RH  033%=      5-min Rain = 0
KST3 102343Z 18009KT 28/11 A3019 RMK A01 T02830106  RH  033%=      5-min Rain = 0
KST3 102344Z 17008KT 28/11 A3019 RMK A01 T02830106  RH  033%=      5-min Rain = 0
KST3 102345Z 16008KT 28/11 A3019 RMK A01 T02830106  RH  033%=      5-min Rain = 0
KST3 102346Z 17009KT 28/11 A3019 RMK A01 T02830106  RH  033%=      5-min Rain = 0
KST3 102347Z 19012KT 28/11 A3019 RMK A01 T02840106  RH  033%=      5-min Rain = 0
KST3 102348Z 18012KT 28/11 A3019 RMK A01 T02830105  RH  033%=      5-min Rain = 0
KST3 102349Z 19011KT 28/11 A3019 RMK A01 T02830105  RH  033%=      5-min Rain = 0
KST3 102350Z 19011KT 28/11 A3019 RMK A01 T02830106  RH  033%=      5-min Rain = 0
KST3 102351Z 19011KT 28/11 A3019 RMK A01 T02830105  RH  033%=      5-min Rain = 0
KST3 102352Z 19009KT 28/11 A3019 RMK A01 T02820106  RH  033%=      5-min Rain = 0
KST3 102353Z 18009KT 28/11 A3019 RMK A01 T02820107  RH  033%=      5-min Rain = 0
KST3 102354Z 18010KT 28/11 A3019 RMK A01 T02820107  RH  034%=      5-min Rain = 0
KST3 102355Z 17012KT 28/11 A3019 RMK A01 T02820106  RH  033%=      5-min Rain = 0
KST3 102356Z 17011KT 28/11 A3019 RMK A01 T02810106  RH  034%=      5-min Rain = 0
KST3 102357Z 17011KT 28/11 A3019 RMK A01 T02800106  RH  034%=      5-min Rain = 0
KST3 102358Z 16012KT 28/11 A3019 RMK A01 T02790107  RH  034%=      5-min Rain = 0
KST3 102359Z 16011KT 28/11 A3019 RMK A01 T02790106  RH  034%=      5-min Rain = 0
KST3 110000Z 17010KT 28/11 A3019 RMK A01 T02780106  RH  034%=      5-min Rain = 0
KST3 110001Z 17010KT 28/11 A3019 RMK A01 T02780107  RH  034%=      5-min Rain = 0
KST3 110002Z 17010KT 28/11 A3019 RMK A01 T02780106  RH  034%=      5-min Rain = 0
KST3 110003Z 17011KT 28/11 A3019 RMK A01 T02770106  RH  034%=      5-min Rain = 0
KST3 110004Z 17011KT 28/11 A3019 RMK A01 T02780107  RH  034%=      5-min Rain = 0
KST3 110005Z 17014KT 28/11 A3019 RMK A01 T02770106  RH  034%=      5-min Rain = 0
KST3 110006Z 18012KT 28/11 A3019 RMK A01 T02770106  RH  034%=      5-min Rain = 0
KST3 110007Z 17010KT 28/11 A3019 RMK A01 T02770106  RH  035%=      5-min Rain = 0
KST3 110008Z 18011KT 28/11 A3019 RMK A01 T02770107  RH  035%=      5-min Rain = 0
KST3 110009Z 17010KT 28/11 A3019 RMK A01 T02770107  RH  035%=      5-min Rain = 0
KST3 110010Z 17008KT 28/11 A3019 RMK A01 T02770107  RH  035%=      5-min Rain = 0
KST3 110011Z 17010KT 28/11 A3019 RMK A01 T02760108  RH  035%=      5-min Rain = 0
KST3 110012Z 17009KT 28/11 A3019 RMK A01 T02760109  RH  035%=      5-min Rain = 0
KST3 110013Z 17010KT 28/11 A3019 RMK A01 T02760110  RH  036%=      5-min Rain = 0
KST3 110014Z 17009KT 28/11 A3019 RMK A01 T02750110  RH  036%=      5-min Rain = 0
KST3 110015Z 17009KT 28/11 A3019 RMK A01 T02750111  RH  036%=      5-min Rain = 0
KST3 110016Z 17008KT 27/11 A3019 RMK A01 T02740111  RH  036%=      5-min Rain = 0
KST3 110017Z 17007KT 27/11 A3019 RMK A01 T02740111  RH  036%=      5-min Rain = 0
KST3 110018Z 17006KT 27/11 A3019 RMK A01 T02730112  RH  037%=      5-min Rain = 0
KST3 110019Z 17006KT 27/11 A3019 RMK A01 T02730112  RH  037%=      5-min Rain = 0
KST3 110020Z 17007KT 27/11 A3019 RMK A01 T02720112  RH  037%=      5-min Rain = 0
KST3 110021Z 17008KT 27/11 A3019 RMK A01 T02720111  RH  037%=      5-min Rain = 0
KST3 110022Z 17009KT 27/11 A3019 RMK A01 T02720110  RH  036%=      5-min Rain = 0
KST3 110023Z 18008KT 27/11 A3019 RMK A01 T02710109  RH  036%=      5-min Rain = 0
KST3 110024Z 17010KT 27/11 A3019 RMK A01 T02710109  RH  036%=      5-min Rain = 0
KST3 110025Z 17011KT 27/11 A3019 RMK A01 T02710111  RH  037%=      5-min Rain = 0
KST3 110026Z 17011KT 27/11 A3019 RMK A01 T02700111  RH  037%=      5-min Rain = 0
KST3 110027Z 17010KT 27/11 A3019 RMK A01 T02690111  RH  037%=      5-min Rain = 0
KST3 110028Z 17010KT 27/11 A3019 RMK A01 T02690112  RH  037%=      5-min Rain = 0
KST3 110029Z 17010KT 27/11 A3019 RMK A01 T02680112  RH  038%=      5-min Rain = 0
KST3 110030Z 17010KT 27/11 A3019 RMK A01 T02680112  RH  038%=      5-min Rain = 0
KST3 110031Z 17009KT 27/11 A3019 RMK A01 T02680112  RH  038%=      5-min Rain = 0
KST3 110032Z 17009KT 27/11 A3019 RMK A01 T02670112  RH  038%=      5-min Rain = 0
KST3 110033Z 16008KT 27/11 A3019 RMK A01 T02660112  RH  038%=      5-min Rain = 0
KST3 110034Z 16008KT 27/11 A3019 RMK A01 T02660112  RH  038%=      5-min Rain = 0
KST3 110035Z 16009KT 27/11 A3019 RMK A01 T02650113  RH  039%=      5-min Rain = 0
KST3 110036Z 16011KT 27/12 A3019 RMK A01 T02650115  RH  039%=      5-min Rain = 0
KST3 110037Z 16011KT 26/12 A3019 RMK A01 T02640116  RH  040%=      5-min Rain = 0
KST3 110038Z 16011KT 26/12 A3019 RMK A01 T02640117  RH  040%=      5-min Rain = 0
KST3 110039Z 16009KT 26/12 A3019 RMK A01 T02630117  RH  040%=      5-min Rain = 0
KST3 110040Z 16011KT 26/12 A3019 RMK A01 T02630118  RH  040%=      5-min Rain = 0
KST3 110041Z 16010KT 26/12 A3019 RMK A01 T02620118  RH  041%=      5-min Rain = 0
KST3 110042Z 16011KT 26/12 A3019 RMK A01 T02610119  RH  041%=      5-min Rain = 0
KST3 110043Z 16011KT 26/12 A3019 RMK A01 T02600119  RH  041%=      5-min Rain = 0
KST3 110044Z 16010KT 26/12 A3019 RMK A01 T02600119  RH  041%=      5-min Rain = 0
KST3 110045Z 16010KT 26/12 A3019 RMK A01 T02590119  RH  042%=      5-min Rain = 0
KST3 110046Z 16011KT 26/12 A3019 RMK A01 T02580118  RH  042%=      5-min Rain = 0
KST3 110047Z 16010KT 26/12 A3019 RMK A01 T02570119  RH  042%=      5-min Rain = 0
KST3 110048Z 16010KT 26/12 A3019 RMK A01 T02570119  RH  042%=      5-min Rain = 0
KST3 110049Z 16010KT 26/12 A3019 RMK A01 T02570119  RH  042%=      5-min Rain = 0
KST3 110050Z 16009KT 26/12 A3019 RMK A01 T02560119  RH  042%=      5-min Rain = 0
KST3 110051Z 15009KT 26/12 A3019 RMK A01 T02550119  RH  043%=      5-min Rain = 0
KST3 110052Z 16009KT 25/12 A3019 RMK A01 T02540119  RH  043%=      5-min Rain = 0
KST3 110053Z 16009KT 25/12 A3019 RMK A01 T02540118  RH  043%=      5-min Rain = 0
KST3 110054Z 15011KT 25/12 A3019 RMK A01 T02540118  RH  043%=      5-min Rain = 0
KST3 110055Z 16009KT 25/12 A3019 RMK A01 T02530118  RH  043%=      5-min Rain = 0
KST3 110056Z 16009KT 25/12 A3019 RMK A01 T02530118  RH  043%=      5-min Rain = 0
KST3 110057Z 16010KT 25/12 A3019 RMK A01 T02530118  RH  043%=      5-min Rain = 0
KST3 110058Z 15010KT 25/12 A3019 RMK A01 T02520117  RH  043%=      5-min Rain = 0
KST3 110059Z 16011KT 25/12 A3019 RMK A01 T02510117  RH  043%=      5-min Rain = 0
KST3 110100Z 16010KT 25/12 A3019 RMK A01 T02510117  RH  043%=      5-min Rain = 0
KST3 110101Z 16010KT 25/12 A3019 RMK A01 T02510117  RH  043%=      5-min Rain = 0
KST3 110102Z 16010KT 25/12 A3019 RMK A01 T02500116  RH  043%=      5-min Rain = 0
KST3 110103Z 16009KT 25/12 A3019 RMK A01 T02510117  RH  043%=      5-min Rain = 0
KST3 110104Z 16010KT 25/12 A3019 RMK A01 T02500117  RH  043%=      5-min Rain = 0
KST3 110105Z 16008KT 25/12 A3019 RMK A01 T02500117  RH  043%=      5-min Rain = 0
KST3 110106Z 16009KT 25/12 A3019 RMK A01 T02490117  RH  044%=      5-min Rain = 0
KST3 110107Z 16011KT 25/12 A3019 RMK A01 T02480116  RH  044%=      5-min Rain = 0
KST3 110108Z 16009KT 25/12 A3019 RMK A01 T02480116  RH  044%=      5-min Rain = 0
KST3 110109Z 16010KT 25/12 A3019 RMK A01 T02480116  RH  044%=      5-min Rain = 0
KST3 110110Z 16010KT 25/12 A3019 RMK A01 T02470116  RH  044%=      5-min Rain = 0
KST3 110111Z 16010KT 25/12 A3019 RMK A01 T02470116  RH  044%=      5-min Rain = 0
KST3 110112Z 16009KT 25/12 A3019 RMK A01 T02470116  RH  044%=      5-min Rain = 0
KST3 110113Z 17011KT 25/12 A3019 RMK A01 T02460116  RH  044%=      5-min Rain = 0
KST3 110114Z 16010KT 25/12 A3019 RMK A01 T02460116  RH  044%=      5-min Rain = 0
KST3 110115Z 16010KT 25/12 A3019 RMK A01 T02460116  RH  044%=      5-min Rain = 0
KST3 110116Z 16009KT 25/12 A3019 RMK A01 T02460115  RH  044%=      5-min Rain = 0
KST3 110117Z 16010KT 25/12 A3019 RMK A01 T02460115  RH  044%=      5-min Rain = 0
KST3 110118Z 16011KT 25/12 A3019 RMK A01 T02450115  RH  044%=      5-min Rain = 0
KST3 110119Z 16010KT 25/12 A3019 RMK A01 T02450115  RH  044%=      5-min Rain = 0
KST3 110120Z 16010KT 25/12 A3019 RMK A01 T02450115  RH  044%=      5-min Rain = 0
KST3 110121Z 16009KT 24/12 A3019 RMK A01 T02440115  RH  044%=      5-min Rain = 0
KST3 110122Z 17008KT 24/12 A3019 RMK A01 T02440115  RH  044%=      5-min Rain = 0
KST3 110123Z 16010KT 24/12 A3019 RMK A01 T02430115  RH  044%=      5-min Rain = 0
KST3 110124Z 16010KT 24/12 A3019 RMK A01 T02430115  RH  045%=      5-min Rain = 0
KST3 110125Z 16011KT 24/12 A3019 RMK A01 T02430115  RH  044%=      5-min Rain = 0
KST3 110126Z 16010KT 24/11 A3019 RMK A01 T02430114  RH  044%=      5-min Rain = 0
KST3 110127Z 16010KT 24/12 A3019 RMK A01 T02430115  RH  044%=      5-min Rain = 0
KST3 110128Z 16010KT 24/11 A3019 RMK A01 T02420114  RH  045%=      5-min Rain = 0
KST3 110129Z 16010KT 24/11 A3019 RMK A01 T02420114  RH  045%=      5-min Rain = 0
KST3 110130Z 16010KT 24/11 A3019 RMK A01 T02410114  RH  045%=      5-min Rain = 0
KST3 110131Z 16010KT 24/12 A3019 RMK A01 T02410115  RH  045%=      5-min Rain = 0
KST3 110132Z 16009KT 24/12 A3019 RMK A01 T02410115  RH  045%=      5-min Rain = 0
KST3 110133Z 16009KT 24/12 A3019 RMK A01 T02410115  RH  045%=      5-min Rain = 0
KST3 110134Z 16009KT 24/12 A3019 RMK A01 T02410115  RH  045%=      5-min Rain = 0
KST3 110135Z 16009KT 24/11 A3019 RMK A01 T02390114  RH  045%=      5-min Rain = 0
KST3 110136Z 16010KT 24/12 A3019 RMK A01 T02390115  RH  046%=      5-min Rain = 0
KST3 110137Z 16010KT 24/12 A3019 RMK A01 T02390115  RH  046%=      5-min Rain = 0
KST3 110138Z 16009KT 24/12 A3019 RMK A01 T02390115  RH  046%=      5-min Rain = 0
KST3 110139Z 16010KT 24/12 A3019 RMK A01 T02380115  RH  046%=      5-min Rain = 0
KST3 110140Z 16009KT 24/12 A3019 RMK A01 T02380115  RH  046%=      5-min Rain = 0
KST3 110141Z 16009KT 24/12 A3019 RMK A01 T02380115  RH  046%=      5-min Rain = 0
KST3 110142Z 16009KT 24/12 A3019 RMK A01 T02370115  RH  046%=      5-min Rain = 0
KST3 110143Z 16010KT 24/12 A302 RMK A01 T02370115  RH  046%=      5-min Rain = 0
KST3 110144Z 16010KT 24/12 A302 RMK A01 T02370115  RH  046%=      5-min Rain = 0
KST3 110145Z 16010KT 24/12 A302 RMK A01 T02370115  RH  046%=      5-min Rain = 0
KST3 110146Z 16010KT 24/12 A302 RMK A01 T02360115  RH  046%=      5-min Rain = 0
KST3 110147Z 16009KT 24/12 A302 RMK A01 T02360115  RH  046%=      5-min Rain = 0
KST3 110148Z 16010KT 24/12 A302 RMK A01 T02360115  RH  046%=      5-min Rain = 0
KST3 110149Z 16008KT 24/12 A302 RMK A01 T02360115  RH  047%=      5-min Rain = 0
KST3 110150Z 16010KT 24/11 A302 RMK A01 T02350114  RH  047%=      5-min Rain = 0
KST3 110151Z 16008KT 24/12 A302 RMK A01 T02350115  RH  047%=      5-min Rain = 0
KST3 110152Z 16009KT 23/11 A302 RMK A01 T02330114  RH  047%=      5-min Rain = 0
KST3 110153Z 16009KT 23/12 A302 RMK A01 T02330115  RH  047%=      5-min Rain = 0
KST3 110154Z 16009KT 23/11 A302 RMK A01 T02330114  RH  047%=      5-min Rain = 0
KST3 110155Z 16009KT 23/11 A302 RMK A01 T02320114  RH  047%=      5-min Rain = 0
KST3 110156Z 16009KT 23/11 A302 RMK A01 T02320114  RH  047%=      5-min Rain = 0
KST3 110157Z 16009KT 23/11 A302 RMK A01 T02320114  RH  047%=      5-min Rain = 0
KST3 110158Z 16010KT 23/11 A302 RMK A01 T02330114  RH  047%=      5-min Rain = 0
KST3 110159Z 16009KT 23/11 A302 RMK A01 T02320114  RH  047%=      5-min Rain = 0
KST3 110200Z 16009KT 23/11 A302 RMK A01 T02320114  RH  047%=      5-min Rain = 0
KST3 110201Z 16009KT 23/11 A302 RMK A01 T02320114  RH  047%=      5-min Rain = 0
KST3 110202Z 16010KT 23/11 A302 RMK A01 T02320114  RH  047%=      5-min Rain = 0
KST3 110203Z 16010KT 23/11 A302 RMK A01 T02320113  RH  047%=      5-min Rain = 0
KST3 110204Z 16010KT 23/11 A302 RMK A01 T02320114  RH  047%=      5-min Rain = 0
KST3 110205Z 16009KT 23/11 A302 RMK A01 T02320113  RH  047%=      5-min Rain = 0
KST3 110206Z 16009KT 23/11 A302 RMK A01 T02310113  RH  047%=      5-min Rain = 0
KST3 110207Z 16010KT 23/11 A302 RMK A01 T02310113  RH  047%=      5-min Rain = 0
KST3 110208Z 16009KT 23/11 A3021 RMK A01 T02310113  RH  047%=      5-min Rain = 0
KST3 110209Z 16008KT 23/11 A3021 RMK A01 T02300113  RH  048%=      5-min Rain = 0
KST3 110210Z 16008KT 23/11 A3021 RMK A01 T02300113  RH  048%=      5-min Rain = 0
KST3 110211Z 16010KT 23/11 A3021 RMK A01 T02290113  RH  048%=      5-min Rain = 0
KST3 110212Z 16009KT 23/11 A3021 RMK A01 T02280112  RH  048%=      5-min Rain = 0
KST3 110213Z 16008KT 23/11 A3021 RMK A01 T02280113  RH  048%=      5-min Rain = 0
KST3 110214Z 16009KT 23/11 A3021 RMK A01 T02280113  RH  048%=      5-min Rain = 0
KST3 110215Z 16008KT 23/11 A3021 RMK A01 T02270112  RH  048%=      5-min Rain = 0
KST3 110216Z 16008KT 23/11 A3021 RMK A01 T02270112  RH  048%=      5-min Rain = 0
KST3 110217Z 16009KT 23/11 A3021 RMK A01 T02270113  RH  048%=      5-min Rain = 0
KST3 110218Z 16008KT 23/11 A3021 RMK A01 T02260112  RH  049%=      5-min Rain = 0
KST3 110219Z 16008KT 23/11 A3021 RMK A01 T02260112  RH  049%=      5-min Rain = 0
KST3 110220Z 15008KT 23/11 A3021 RMK A01 T02250112  RH  049%=      5-min Rain = 0
KST3 110221Z 15009KT 23/11 A3021 RMK A01 T02250112  RH  049%=      5-min Rain = 0
KST3 110222Z 16009KT 22/11 A3021 RMK A01 T02240112  RH  049%=      5-min Rain = 0
KST3 110223Z 16008KT 22/11 A3021 RMK A01 T02240112  RH  049%=      5-min Rain = 0
KST3 110224Z 16009KT 22/11 A3021 RMK A01 T02240112  RH  049%=      5-min Rain = 0
KST3 110225Z 16010KT 22/11 A3021 RMK A01 T02240112  RH  049%=      5-min Rain = 0
KST3 110226Z 16010KT 22/11 A3021 RMK A01 T02240112  RH  049%=      5-min Rain = 0
KST3 110227Z 16009KT 22/11 A3021 RMK A01 T02230112  RH  049%=      5-min Rain = 0
KST3 110228Z 16008KT 22/11 A3021 RMK A01 T02230112  RH  049%=      5-min Rain = 0
KST3 110229Z 16009KT 22/11 A3021 RMK A01 T02220111  RH  049%=      5-min Rain = 0
KST3 110230Z 16009KT 22/11 A3021 RMK A01 T02220111  RH  049%=      5-min Rain = 0
KST3 110231Z 16009KT 22/11 A3021 RMK A01 T02210111  RH  050%=      5-min Rain = 0
KST3 110232Z 16009KT 22/11 A3022 RMK A01 T02210111  RH  050%=      5-min Rain = 0
KST3 110233Z 16008KT 22/11 A3022 RMK A01 T02210111  RH  050%=      5-min Rain = 0
KST3 110234Z 16008KT 22/11 A3022 RMK A01 T02210111  RH  050%=      5-min Rain = 0
KST3 110235Z 16008KT 22/11 A3022 RMK A01 T02200111  RH  050%=      5-min Rain = 0
KST3 110236Z 16007KT 22/11 A3022 RMK A01 T02200111  RH  050%=      5-min Rain = 0
KST3 110237Z 16007KT 22/11 A3022 RMK A01 T02200111  RH  050%=      5-min Rain = 0
KST3 110238Z 16008KT 22/11 A3022 RMK A01 T02190111  RH  050%=      5-min Rain = 0
KST3 110239Z 16007KT 22/11 A3022 RMK A01 T02180110  RH  050%=      5-min Rain = 0
KST3 110240Z 16008KT 22/11 A3022 RMK A01 T02170110  RH  051%=      5-min Rain = 0
KST3 110241Z 16008KT 22/11 A3022 RMK A01 T02170110  RH  051%=      5-min Rain = 0
KST3 110242Z 16009KT 22/11 A3022 RMK A01 T02170110  RH  051%=      5-min Rain = 0
KST3 110243Z 16008KT 22/11 A3022 RMK A01 T02170110  RH  050%=      5-min Rain = 0
KST3 110244Z 16009KT 22/11 A3022 RMK A01 T02170110  RH  050%=      5-min Rain = 0
KST3 110245Z 16010KT 22/11 A3022 RMK A01 T02170110  RH  050%=      5-min Rain = 0
KST3 110246Z 16009KT 22/11 A3022 RMK A01 T02170110  RH  050%=      5-min Rain = 0
KST3 110247Z 16009KT 22/11 A3022 RMK A01 T02170110  RH  050%=      5-min Rain = 0
KST3 110248Z 16010KT 22/11 A3022 RMK A01 T02160109  RH  050%=      5-min Rain = 0
KST3 110249Z 16009KT 22/11 A3022 RMK A01 T02160109  RH  050%=      5-min Rain = 0
KST3 110250Z 16009KT 22/11 A3022 RMK A01 T02160109  RH  050%=      5-min Rain = 0
KST3 110251Z 15009KT 22/11 A3022 RMK A01 T02170109  RH  050%=      5-min Rain = 0
KST3 110252Z 15008KT 22/11 A3022 RMK A01 T02170109  RH  050%=      5-min Rain = 0
KST3 110253Z 15009KT 22/11 A3022 RMK A01 T02160109  RH  050%=      5-min Rain = 0
KST3 110254Z 16008KT 22/11 A3022 RMK A01 T02150109  RH  051%=      5-min Rain = 0
KST3 110255Z 16010KT 21/11 A3022 RMK A01 T02140108  RH  051%=      5-min Rain = 0
KST3 110256Z 15010KT 21/11 A3022 RMK A01 T02140109  RH  051%=      5-min Rain = 0
KST3 110257Z 16011KT 21/11 A3022 RMK A01 T02140108  RH  051%=      5-min Rain = 0
KST3 110258Z 16010KT 22/11 A3022 RMK A01 T02150109  RH  051%=      5-min Rain = 0
KST3 110259Z 15009KT 22/11 A3022 RMK A01 T02150109  RH  051%=      5-min Rain = 0
KST3 110300Z 16010KT 22/11 A3022 RMK A01 T02150109  RH  051%=      5-min Rain = 0
KST3 110301Z 16009KT 21/11 A3022 RMK A01 T02140109  RH  051%=      5-min Rain = 0
KST3 110302Z 15010KT 21/11 A3022 RMK A01 T02130109  RH  051%=      5-min Rain = 0
KST3 110303Z 16010KT 21/11 A3022 RMK A01 T02130109  RH  051%=      5-min Rain = 0
KST3 110304Z 16010KT 21/11 A3022 RMK A01 T02130109  RH  051%=      5-min Rain = 0
KST3 110305Z 16008KT 21/11 A3022 RMK A01 T02140109  RH  051%=      5-min Rain = 0
KST3 110306Z 16008KT 21/11 A3023 RMK A01 T02130109  RH  051%=      5-min Rain = 0
KST3 110307Z 16010KT 21/11 A3023 RMK A01 T02130109  RH  051%=      5-min Rain = 0
KST3 110308Z 16009KT 21/11 A3023 RMK A01 T02120109  RH  052%=      5-min Rain = 0
KST3 110309Z 16008KT 21/11 A3023 RMK A01 T02120109  RH  052%=      5-min Rain = 0
KST3 110310Z 16009KT 21/11 A3023 RMK A01 T02110109  RH  052%=      5-min Rain = 0
KST3 110311Z 15009KT 21/11 A3023 RMK A01 T02110109  RH  052%=      5-min Rain = 0
KST3 110312Z 16009KT 21/11 A3023 RMK A01 T02110109  RH  052%=      5-min Rain = 0
KST3 110313Z 16009KT 21/11 A3023 RMK A01 T02110109  RH  052%=      5-min Rain = 0
KST3 110314Z 16009KT 21/11 A3023 RMK A01 T02110109  RH  052%=      5-min Rain = 0
KST3 110315Z 16008KT 21/11 A3023 RMK A01 T02110109  RH  052%=      5-min Rain = 0
KST3 110316Z 16009KT 21/11 A3023 RMK A01 T02100109  RH  052%=      5-min Rain = 0
KST3 110317Z 16009KT 21/11 A3023 RMK A01 T02100109  RH  052%=      5-min Rain = 0
KST3 110318Z 16008KT 21/11 A3023 RMK A01 T02100109  RH  052%=      5-min Rain = 0
KST3 110319Z 16009KT 21/11 A3023 RMK A01 T02100108  RH  052%=      5-min Rain = 0
KST3 110320Z 16008KT 21/11 A3023 RMK A01 T02090108  RH  052%=      5-min Rain = 0
KST3 110321Z 16008KT 21/11 A3023 RMK A01 T02090108  RH  053%=      5-min Rain = 0
KST3 110322Z 16009KT 21/11 A3023 RMK A01 T02080108  RH  053%=      5-min Rain = 0
KST3 110323Z 16009KT 21/11 A3023 RMK A01 T02080108  RH  053%=      5-min Rain = 0
KST3 110324Z 16008KT 21/11 A3023 RMK A01 T02080108  RH  052%=      5-min Rain = 0
KST3 110325Z 16008KT 21/11 A3023 RMK A01 T02080108  RH  053%=      5-min Rain = 0
KST3 110326Z 16009KT 21/11 A3023 RMK A01 T02080108  RH  053%=      5-min Rain = 0
KST3 110327Z 16009KT 21/11 A3023 RMK A01 T02070108  RH  053%=      5-min Rain = 0
KST3 110328Z 16009KT 21/11 A3023 RMK A01 T02070107  RH  053%=      5-min Rain = 0
KST3 110329Z 16009KT 21/11 A3023 RMK A01 T02080107  RH  052%=      5-min Rain = 0
KST3 110330Z 15010KT 21/11 A3023 RMK A01 T02080107  RH  052%=      5-min Rain = 0
KST3 110331Z 16009KT 21/11 A3023 RMK A01 T02090107  RH  052%=      5-min Rain = 0
KST3 110332Z 16009KT 21/11 A3023 RMK A01 T02090107  RH  052%=      5-min Rain = 0
KST3 110333Z 16008KT 21/11 A3023 RMK A01 T02090107  RH  052%=      5-min Rain = 0
KST3 110334Z 16008KT 21/11 A3023 RMK A01 T02080107  RH  052%=      5-min Rain = 0
KST3 110335Z 16009KT 21/11 A3023 RMK A01 T02070107  RH  052%=      5-min Rain = 0
KST3 110336Z 16008KT 21/11 A3023 RMK A01 T02070107  RH  053%=      5-min Rain = 0
KST3 110337Z 16009KT 21/11 A3023 RMK A01 T02070107  RH  052%=      5-min Rain = 0
KST3 110338Z 16007KT 21/11 A3023 RMK A01 T02070107  RH  053%=      5-min Rain = 0
KST3 110339Z 16007KT 21/11 A3023 RMK A01 T02070107  RH  053%=      5-min Rain = 0
KST3 110340Z 16008KT 21/11 A3023 RMK A01 T02070107  RH  053%=      5-min Rain = 0
KST3 110341Z 16009KT 21/11 A3023 RMK A01 T02060106  RH  053%=      5-min Rain = 0
KST3 110342Z 16008KT 21/11 A3023 RMK A01 T02060107  RH  053%=      5-min Rain = 0
KST3 110343Z 16009KT 21/11 A3023 RMK A01 T02060106  RH  053%=      5-min Rain = 0
KST3 110344Z 16008KT 21/11 A3023 RMK A01 T02060106  RH  053%=      5-min Rain = 0
KST3 110345Z 16009KT 21/11 A3023 RMK A01 T02060106  RH  053%=      5-min Rain = 0
KST3 110346Z 16008KT 21/11 A3023 RMK A01 T02050106  RH  053%=      5-min Rain = 0
KST3 110347Z 17009KT 21/11 A3023 RMK A01 T02050106  RH  053%=      5-min Rain = 0
KST3 110348Z 17008KT 20/11 A3023 RMK A01 T02040106  RH  053%=      5-min Rain = 0
KST3 110349Z 16008KT 21/11 A3023 RMK A01 T02050106  RH  053%=      5-min Rain = 0
KST3 110350Z 16008KT 21/11 A3023 RMK A01 T02050106  RH  053%=      5-min Rain = 0
KST3 110351Z 16009KT 21/11 A3023 RMK A01 T02050106  RH  053%=      5-min Rain = 0
KST3 110352Z 16009KT 21/11 A3023 RMK A01 T02050106  RH  053%=      5-min Rain = 0
KST3 110353Z 16008KT 21/11 A3023 RMK A01 T02050106  RH  053%=      5-min Rain = 0
KST3 110354Z 16007KT 21/11 A3023 RMK A01 T02050106  RH  053%=      5-min Rain = 0
KST3 110355Z 16007KT 21/11 A3023 RMK A01 T02050106  RH  053%=      5-min Rain = 0
KST3 110356Z 15008KT 20/11 A3023 RMK A01 T02040105  RH  053%=      5-min Rain = 0
KST3 110357Z 15007KT 20/11 A3023 RMK A01 T02030105  RH  053%=      5-min Rain = 0
KST3 110358Z 15008KT 20/11 A3023 RMK A01 T02030105  RH  053%=      5-min Rain = 0
KST3 110359Z 15008KT 20/11 A3023 RMK A01 T02030105  RH  053%=      5-min Rain = 0
KST3 110400Z 15008KT 20/11 A3024 RMK A01 T02030105  RH  053%=      5-min Rain = 0
KST3 110401Z 15008KT 20/11 A3024 RMK A01 T02020105  RH  054%=      5-min Rain = 0
KST3 110402Z 15008KT 20/11 A3024 RMK A01 T02020105  RH  054%=      5-min Rain = 0
KST3 110403Z 15008KT 20/11 A3024 RMK A01 T02010105  RH  054%=      5-min Rain = 0
KST3 110404Z 15009KT 20/11 A3024 RMK A01 T02010105  RH  054%=      5-min Rain = 0
KST3 110405Z 15009KT 20/11 A3024 RMK A01 T02010105  RH  054%=      5-min Rain = 0
KST3 110406Z 16010KT 20/11 A3024 RMK A01 T02000105  RH  054%=      5-min Rain = 0
KST3 110407Z 15010KT 20/11 A3024 RMK A01 T02010105  RH  054%=      5-min Rain = 0
KST3 110408Z 15009KT 20/10 A3024 RMK A01 T02020104  RH  054%=      5-min Rain = 0
KST3 110409Z 15008KT 20/10 A3024 RMK A01 T02020104  RH  053%=      5-min Rain = 0
KST3 110410Z 15007KT 20/11 A3024 RMK A01 T02020105  RH  054%=      5-min Rain = 0
KST3 110411Z 15006KT 20/11 A3024 RMK A01 T02010105  RH  054%=      5-min Rain = 0
KST3 110412Z 15006KT 20/10 A3024 RMK A01 T02000104  RH  054%=      5-min Rain = 0
KST3 110413Z 15006KT 20/10 A3024 RMK A01 T01990104  RH  054%=      5-min Rain = 0
KST3 110414Z 15005KT 20/10 A3024 RMK A01 T01980104  RH  055%=      5-min Rain = 0
KST3 110415Z 15005KT 20/10 A3024 RMK A01 T01970104  RH  055%=      5-min Rain = 0
KST3 110416Z 15005KT 20/10 A3024 RMK A01 T01960104  RH  055%=      5-min Rain = 0
KST3 110417Z 15006KT 20/10 A3024 RMK A01 T01950104  RH  056%=      5-min Rain = 0
KST3 110418Z 15005KT 19/10 A3024 RMK A01 T01940104  RH  056%=      5-min Rain = 0
KST3 110419Z 15007KT 19/10 A3024 RMK A01 T01930104  RH  056%=      5-min Rain = 0
KST3 110420Z 16007KT 19/10 A3024 RMK A01 T01920104  RH  056%=      5-min Rain = 0
KST3 110421Z 15007KT 19/10 A3024 RMK A01 T01920104  RH  056%=      5-min Rain = 0
KST3 110422Z 15006KT 19/10 A3024 RMK A01 T01930104  RH  056%=      5-min Rain = 0
KST3 110423Z 15007KT 19/10 A3024 RMK A01 T01940104  RH  056%=      5-min Rain = 0
KST3 110424Z 15008KT 19/10 A3024 RMK A01 T01940104  RH  056%=      5-min Rain = 0
KST3 110425Z 15007KT 19/10 A3024 RMK A01 T01940104  RH  056%=      5-min Rain = 0
KST3 110426Z 15006KT 19/10 A3024 RMK A01 T01930104  RH  056%=      5-min Rain = 0
KST3 110427Z 15006KT 19/10 A3024 RMK A01 T01920103  RH  056%=      5-min Rain = 0
KST3 110428Z 15006KT 19/10 A3024 RMK A01 T01910103  RH  057%=      5-min Rain = 0
KST3 110429Z 15006KT 19/10 A3024 RMK A01 T01910103  RH  057%=      5-min Rain = 0
KST3 110430Z 15008KT 19/10 A3024 RMK A01 T01910103  RH  057%=      5-min Rain = 0
KST3 110431Z 15008KT 19/10 A3024 RMK A01 T01900103  RH  057%=      5-min Rain = 0
KST3 110432Z 15007KT 19/10 A3024 RMK A01 T01910103  RH  057%=      5-min Rain = 0
KST3 110433Z 15007KT 19/10 A3024 RMK A01 T01910103  RH  057%=      5-min Rain = 0
KST3 110434Z 15007KT 19/10 A3024 RMK A01 T01910103  RH  057%=      5-min Rain = 0
KST3 110435Z 15007KT 19/10 A3024 RMK A01 T01910103  RH  057%=      5-min Rain = 0
KST3 110436Z 15006KT 19/10 A3024 RMK A01 T01910103  RH  057%=      5-min Rain = 0
KST3 110437Z 15006KT 19/10 A3024 RMK A01 T01900103  RH  057%=      5-min Rain = 0
KST3 110438Z 15008KT 19/10 A3024 RMK A01 T01890102  RH  057%=      5-min Rain = 0
KST3 110439Z 16008KT 19/10 A3024 RMK A01 T01890102  RH  057%=      5-min Rain = 0
KST3 110440Z 15009KT 19/10 A3024 RMK A01 T01890102  RH  057%=      5-min Rain = 0
KST3 110441Z 16009KT 19/10 A3024 RMK A01 T01900102  RH  057%=      5-min Rain = 0
KST3 110442Z 16009KT 19/10 A3024 RMK A01 T01900102  RH  057%=      5-min Rain = 0
KST3 110443Z 16009KT 19/10 A3024 RMK A01 T01900102  RH  056%=      5-min Rain = 0
KST3 110444Z 16010KT 19/10 A3024 RMK A01 T01910102  RH  056%=      5-min Rain = 0
KST3 110445Z 15011KT 19/10 A3024 RMK A01 T01920101  RH  056%=      5-min Rain = 0
KST3 110446Z 16010KT 19/10 A3024 RMK A01 T01930101  RH  055%=      5-min Rain = 0
KST3 110447Z 16009KT 19/10 A3024 RMK A01 T01930101  RH  055%=      5-min Rain = 0
KST3 110448Z 16010KT 19/10 A3024 RMK A01 T01930101  RH  055%=      5-min Rain = 0
KST3 110449Z 16012KT 19/10 A3024 RMK A01 T01930100  RH  055%=      5-min Rain = 0
KST3 110450Z 16012KT 19/10 A3024 RMK A01 T01930099  RH  055%=      5-min Rain = 0
KST3 110451Z 16012KT 19/10 A3024 RMK A01 T01930099  RH  054%=      5-min Rain = 0
KST3 110452Z 16011KT 19/10 A3024 RMK A01 T01940099  RH  054%=      5-min Rain = 0
KST3 110453Z 16012KT 19/10 A3024 RMK A01 T01940099  RH  054%=      5-min Rain = 0
KST3 110454Z 16011KT 19/10 A3024 RMK A01 T01940098  RH  054%=      5-min Rain = 0
KST3 110455Z 16013KT 19/10 A3024 RMK A01 T01940098  RH  054%=      5-min Rain = 0
KST3 110456Z 16012KT 19/10 A3024 RMK A01 T01940097  RH  054%=      5-min Rain = 0
KST3 110457Z 16012KT 19/10 A3024 RMK A01 T01940097  RH  054%=      5-min Rain = 0
KST3 110458Z 16013KT 19/10 A3024 RMK A01 T01940097  RH  053%=      5-min Rain = 0
KST3 110459Z 16011KT 19/10 A3024 RMK A01 T01940097  RH  053%=      5-min Rain = 0

Page generated in 0.1238 seconds.